Time,TemperatureF,DewpointF,PressureIn,WindDirection,WindDirectionDegrees,WindSpeedMPH,WindSpeedGustMPH,Humidity,HourlyPrecipIn,Conditions,Clouds,dailyrainin,SoftwareType,DateUTC
2013-04-02 00:00:00,41.7,23.5,29.90,SSW,213,1.0,12.0,48,0.00,,,0.03,meteohub,2013-04-02 04:00:00,
2013-04-02 00:01:00,41.7,23.5,29.90,West,271,5.0,10.0,48,0.00,,,0.03,meteohub,2013-04-02 04:01:00,
2013-04-02 00:05:00,41.5,23.4,29.91,ESE,103,2.0,8.0,48,0.00,,,0.00,meteohub,2013-04-02 04:05:00,
2013-04-02 00:06:00,41.5,23.7,29.91,North,5,2.0,8.0,49,0.00,,,0.00,meteohub,2013-04-02 04:06:00,
2013-04-02 00:10:00,41.5,23.4,29.91,SW,219,1.0,8.0,48,0.00,,,0.00,meteohub,2013-04-02 04:10:00,
2013-04-02 00:12:00,41.4,23.2,29.91,WSW,258,3.0,8.0,48,0.00,,,0.00,meteohub,2013-04-02 04:12:00,
2013-04-02 00:15:00,41.2,23.0,29.91,WNW,284,8.0,8.0,48,0.00,,,0.00,meteohub,2013-04-02 04:15:00,
2013-04-02 00:17:00,41.2,22.5,29.91,SW,218,2.0,8.0,47,0.00,,,0.00,meteohub,2013-04-02 04:17:00,
2013-04-02 00:20:00,41.0,22.8,29.91,WSW,254,4.0,12.0,48,0.00,,,0.00,meteohub,2013-04-02 04:20:00,
2013-04-02 00:21:00,41.0,22.8,29.92,SSE,163,1.0,12.0,48,0.00,,,0.00,meteohub,2013-04-02 04:21:00,
2013-04-02 00:22:00,41.0,22.8,29.91,South,172,2.0,12.0,48,0.00,,,0.00,meteohub,2013-04-02 04:22:00,
2013-04-02 00:25:00,40.8,22.6,29.92,SSW,211,1.0,12.0,48,0.00,,,0.00,meteohub,2013-04-02 04:25:00,
2013-04-02 00:26:00,40.8,22.6,29.92,WSW,244,3.0,12.0,48,0.00,,,0.00,meteohub,2013-04-02 04:26:00,
2013-04-02 00:27:00,40.8,22.6,29.92,WSW,245,1.0,12.0,48,0.00,,,0.00,meteohub,2013-04-02 04:27:00,
2013-04-02 00:30:00,40.6,23.0,29.92,WNW,303,1.0,11.0,49,0.00,,,0.00,meteohub,2013-04-02 04:30:00,
2013-04-02 00:31:00,40.6,23.0,29.92,WNW,289,2.0,11.0,49,0.00,,,0.00,meteohub,2013-04-02 04:31:00,
2013-04-02 00:32:00,40.6,23.0,29.92,NNW,329,2.0,11.0,49,0.00,,,0.00,meteohub,2013-04-02 04:32:00,
2013-04-02 00:33:00,40.6,23.0,29.93,NE,37,3.0,11.0,49,0.00,,,0.00,meteohub,2013-04-02 04:33:00,
2013-04-02 00:35:00,40.5,22.8,29.93,WNW,297,5.0,11.0,49,0.00,,,0.00,meteohub,2013-04-02 04:35:00,
2013-04-02 00:37:00,40.5,22.8,29.93,West,267,2.0,11.0,49,0.00,,,0.00,meteohub,2013-04-02 04:37:00,
2013-04-02 00:38:00,40.5,22.8,29.93,WNW,284,2.0,11.0,49,0.00,,,0.00,meteohub,2013-04-02 04:38:00,
2013-04-02 00:41:00,40.3,23.2,29.93,NNE,14,1.0,10.0,50,0.00,,,0.00,meteohub,2013-04-02 04:41:00,
2013-04-02 00:42:00,40.3,23.2,29.93,West,272,5.0,10.0,50,0.00,,,0.00,meteohub,2013-04-02 04:42:00,
2013-04-02 00:43:00,40.3,22.6,29.93,SSW,208,2.0,10.0,49,0.00,,,0.00,meteohub,2013-04-02 04:43:00,
2013-04-02 00:44:00,40.1,22.5,29.93,WNW,284,3.0,10.0,49,0.00,,,0.00,meteohub,2013-04-02 04:44:00,
2013-04-02 00:46:00,40.1,22.5,29.93,NW,323,6.0,10.0,49,0.00,,,0.00,meteohub,2013-04-02 04:46:00,
2013-04-02 00:48:00,39.9,21.7,29.94,East,87,1.0,10.0,48,0.00,,,0.00,meteohub,2013-04-02 04:48:00,
2013-04-02 00:49:00,39.9,21.7,29.94,West,263,1.0,10.0,48,0.00,,,0.00,meteohub,2013-04-02 04:49:00,
2013-04-02 00:51:00,39.9,22.3,29.94,South,175,4.0,10.0,49,0.00,,,0.00,meteohub,2013-04-02 04:51:00,
2013-04-02 00:54:00,39.7,21.7,29.94,West,280,1.0,10.0,48,0.00,,,0.00,meteohub,2013-04-02 04:54:00,
2013-04-02 00:55:00,39.7,21.7,29.94,SW,232,0.0,13.0,48,0.00,,,0.00,meteohub,2013-04-02 04:55:00,
2013-04-02 00:57:00,39.7,21.7,29.94,WSW,245,2.0,13.0,48,0.00,,,0.00,meteohub,2013-04-02 04:57:00,
2013-04-02 00:59:00,39.6,21.6,29.94,NW,325,2.0,13.0,48,0.00,,,0.00,meteohub,2013-04-02 04:59:00,
2013-04-02 01:00:00,39.6,21.0,29.94,WSW,244,1.0,13.0,47,0.00,,,0.00,meteohub,2013-04-02 05:00:00,
2013-04-02 01:02:00,39.6,21.6,29.94,West,280,9.0,13.0,48,0.00,,,0.00,meteohub,2013-04-02 05:02:00,
2013-04-02 01:04:00,39.6,21.0,29.95,NW,306,2.0,13.0,47,0.00,,,0.00,meteohub,2013-04-02 05:04:00,
2013-04-02 01:05:00,39.4,21.4,29.95,WSW,256,6.0,13.0,48,0.00,,,0.00,meteohub,2013-04-02 05:05:00,
2013-04-02 01:07:00,39.4,21.4,29.95,WNW,285,1.0,13.0,48,0.00,,,0.00,meteohub,2013-04-02 05:07:00,
2013-04-02 01:08:00,39.4,21.4,29.95,NW,311,0.0,13.0,48,0.00,,,0.00,meteohub,2013-04-02 05:08:00,
2013-04-02 01:09:00,39.4,21.7,29.95,NW,319,1.0,13.0,49,0.00,,,0.00,meteohub,2013-04-02 05:09:00,
2013-04-02 01:10:00,39.4,21.4,29.95,West,267,5.0,11.0,48,0.00,,,0.00,meteohub,2013-04-02 05:10:00,
2013-04-02 01:13:00,39.2,21.2,29.95,WNW,300,1.0,11.0,48,0.00,,,0.00,meteohub,2013-04-02 05:13:00,
2013-04-02 01:14:00,39.0,21.0,29.96,NW,305,4.0,11.0,48,0.00,,,0.00,meteohub,2013-04-02 05:14:00,
2013-04-02 01:15:00,39.0,21.0,29.96,NNE,22,1.0,10.0,48,0.00,,,0.00,meteohub,2013-04-02 05:15:00,
2013-04-02 01:18:00,39.0,21.0,29.96,West,272,0.0,10.0,48,0.00,,,0.00,meteohub,2013-04-02 05:18:00,
2013-04-02 01:19:00,39.0,21.0,29.96,NNW,347,1.0,10.0,48,0.00,,,0.00,meteohub,2013-04-02 05:19:00,
2013-04-02 01:22:00,38.8,20.8,29.96,West,279,2.0,8.0,48,0.00,,,0.00,meteohub,2013-04-02 05:22:00,
2013-04-02 01:23:00,38.8,20.8,29.96,NE,46,2.0,8.0,48,0.00,,,0.00,meteohub,2013-04-02 05:23:00,
2013-04-02 01:24:00,38.8,21.4,29.96,NW,315,0.0,8.0,49,0.00,,,0.00,meteohub,2013-04-02 05:24:00,
2013-04-02 01:28:00,38.7,21.2,29.96,NNW,332,1.0,8.0,49,0.00,,,0.00,meteohub,2013-04-02 05:28:00,
2013-04-02 01:29:00,38.7,21.2,29.96,NNW,329,1.0,8.0,49,0.00,,,0.00,meteohub,2013-04-02 05:29:00,
2013-04-02 01:30:00,38.7,21.2,29.96,WNW,299,1.0,8.0,49,0.00,,,0.00,meteohub,2013-04-02 05:30:00,
2013-04-02 01:33:00,38.5,21.0,29.96,SSE,150,1.0,5.0,49,0.00,,,0.00,meteohub,2013-04-02 05:33:00,
2013-04-02 01:34:00,38.5,21.0,29.96,WNW,294,4.0,5.0,49,0.00,,,0.00,meteohub,2013-04-02 05:34:00,
2013-04-02 01:35:00,38.3,20.8,29.96,West,277,3.0,6.0,49,0.00,,,0.00,meteohub,2013-04-02 05:35:00,
2013-04-02 01:38:00,38.1,20.7,29.97,WNW,302,1.0,6.0,49,0.00,,,0.00,meteohub,2013-04-02 05:38:00,
2013-04-02 01:39:00,38.1,20.1,29.97,SW,223,1.0,6.0,48,0.00,,,0.00,meteohub,2013-04-02 05:39:00,
2013-04-02 01:40:00,38.1,20.1,29.97,WNW,282,1.0,7.0,48,0.00,,,0.00,meteohub,2013-04-02 05:40:00,
2013-04-02 01:43:00,38.1,20.7,29.97,WNW,296,2.0,7.0,49,0.00,,,0.00,meteohub,2013-04-02 05:43:00,
2013-04-02 01:44:00,37.9,20.5,29.97,NNE,22,4.0,7.0,49,0.00,,,0.00,meteohub,2013-04-02 05:44:00,
2013-04-02 01:45:00,37.9,20.5,29.97,NNE,14,1.0,7.0,49,0.00,,,0.00,meteohub,2013-04-02 05:45:00,
2013-04-02 01:46:00,37.9,20.5,29.97,NNW,327,3.0,7.0,49,0.00,,,0.00,meteohub,2013-04-02 05:46:00,
2013-04-02 01:48:00,37.9,19.9,29.97,SW,219,1.0,7.0,48,0.00,,,0.00,meteohub,2013-04-02 05:48:00,
2013-04-02 01:49:00,37.9,19.9,29.97,WNW,302,0.0,7.0,48,0.00,,,0.00,meteohub,2013-04-02 05:49:00,
2013-04-02 01:50:00,37.9,19.9,29.97,South,186,2.0,7.0,48,0.00,,,0.00,meteohub,2013-04-02 05:50:00,
2013-04-02 01:51:00,37.9,19.9,29.97,WNW,282,4.0,7.0,48,0.00,,,0.00,meteohub,2013-04-02 05:51:00,
2013-04-02 01:53:00,37.8,19.8,29.97,NNW,337,0.0,7.0,48,0.00,,,0.00,meteohub,2013-04-02 05:53:00,
2013-04-02 01:55:00,37.8,19.8,29.97,WSW,245,2.0,7.0,48,0.00,,,0.00,meteohub,2013-04-02 05:55:00,
2013-04-02 01:56:00,37.8,19.8,29.97,SE,130,1.0,7.0,48,0.00,,,0.00,meteohub,2013-04-02 05:56:00,
2013-04-02 01:58:00,37.8,19.8,29.97,West,281,3.0,7.0,48,0.00,,,0.00,meteohub,2013-04-02 05:58:00,
2013-04-02 02:00:00,37.6,20.1,29.97,West,280,0.0,7.0,49,0.00,,,0.00,meteohub,2013-04-02 06:00:00,
2013-04-02 02:01:00,37.6,20.1,29.97,West,280,0.0,7.0,49,0.00,,,0.00,meteohub,2013-04-02 06:01:00,
2013-04-02 02:02:00,37.6,20.1,29.97,SSW,207,0.0,7.0,49,0.00,,,0.00,meteohub,2013-04-02 06:02:00,
2013-04-02 02:04:00,37.6,20.1,29.97,West,261,1.0,7.0,49,0.00,,,0.00,meteohub,2013-04-02 06:04:00,
2013-04-02 02:06:00,37.6,20.1,29.97,West,263,1.0,7.0,49,0.00,,,0.00,meteohub,2013-04-02 06:06:00,
2013-04-02 02:07:00,37.4,19.6,29.97,WSW,248,0.0,7.0,48,0.00,,,0.00,meteohub,2013-04-02 06:07:00,
2013-04-02 02:09:00,37.2,19.8,29.97,West,279,4.0,7.0,49,0.00,,,0.00,meteohub,2013-04-02 06:09:00,
2013-04-02 02:11:00,37.2,19.8,29.97,West,266,4.0,6.0,49,0.00,,,0.00,meteohub,2013-04-02 06:11:00,
2013-04-02 02:12:00,37.2,19.8,29.97,West,281,2.0,6.0,49,0.00,,,0.00,meteohub,2013-04-02 06:12:00,
2013-04-02 02:14:00,37.0,19.6,29.97,West,259,2.0,6.0,49,0.00,,,0.00,meteohub,2013-04-02 06:14:00,
2013-04-02 02:17:00,37.0,19.6,29.97,WSW,250,1.0,7.0,49,0.00,,,0.00,meteohub,2013-04-02 06:17:00,
2013-04-02 02:19:00,37.0,20.1,29.97,SSW,213,0.0,7.0,50,0.00,,,0.00,meteohub,2013-04-02 06:19:00,
2013-04-02 02:22:00,36.9,19.9,29.97,WNW,288,0.0,7.0,50,0.00,,,0.00,meteohub,2013-04-02 06:22:00,
2013-04-02 02:23:00,36.9,19.9,29.97,WNW,285,0.0,7.0,50,0.00,,,0.00,meteohub,2013-04-02 06:23:00,
2013-04-02 02:25:00,36.9,19.9,29.97,WNW,288,2.0,7.0,50,0.00,,,0.00,meteohub,2013-04-02 06:25:00,
2013-04-02 02:28:00,36.9,19.9,29.97,WSW,250,1.0,7.0,50,0.00,,,0.00,meteohub,2013-04-02 06:28:00,
2013-04-02 02:30:00,36.7,20.3,29.97,West,267,3.0,6.0,51,0.00,,,0.00,meteohub,2013-04-02 06:30:00,
2013-04-02 02:33:00,36.7,19.8,29.97,WNW,292,2.0,6.0,50,0.00,,,0.00,meteohub,2013-04-02 06:33:00,
2013-04-02 02:35:00,36.7,20.3,29.97,WNW,290,5.0,7.0,51,0.00,,,0.00,meteohub,2013-04-02 06:35:00,
2013-04-02 02:38:00,36.7,20.3,29.97,West,269,0.0,7.0,51,0.00,,,0.00,meteohub,2013-04-02 06:38:00,
2013-04-02 02:40:00,36.7,20.3,29.97,NW,322,5.0,7.0,51,0.00,,,0.00,meteohub,2013-04-02 06:40:00,
2013-04-02 02:43:00,36.7,20.3,29.97,West,273,2.0,7.0,51,0.00,,,0.00,meteohub,2013-04-02 06:43:00,
2013-04-02 02:44:00,36.7,20.3,29.97,West,274,2.0,7.0,51,0.00,,,0.00,meteohub,2013-04-02 06:44:00,
2013-04-02 02:45:00,36.7,20.3,29.97,WNW,286,2.0,8.0,51,0.00,,,0.00,meteohub,2013-04-02 06:45:00,
2013-04-02 02:49:00,36.5,20.1,29.97,North,355,1.0,8.0,51,0.00,,,0.00,meteohub,2013-04-02 06:49:00,
2013-04-02 02:50:00,36.3,20.3,29.97,SW,220,1.0,8.0,52,0.00,,,0.00,meteohub,2013-04-02 06:50:00,
2013-04-02 02:54:00,36.3,20.3,29.97,West,275,0.0,8.0,52,0.00,,,0.00,meteohub,2013-04-02 06:54:00,
2013-04-02 02:57:00,36.1,20.3,29.97,West,274,3.0,8.0,52,0.00,,,0.00,meteohub,2013-04-02 06:57:00,
2013-04-02 02:59:00,36.1,19.8,29.97,WNW,282,1.0,8.0,51,0.00,,,0.00,meteohub,2013-04-02 06:59:00,
2013-04-02 03:00:00,36.1,19.8,29.97,WNW,288,0.0,7.0,51,0.00,,,0.00,meteohub,2013-04-02 07:00:00,
2013-04-02 03:02:00,36.1,19.8,29.97,NW,314,0.0,7.0,51,0.00,,,0.00,meteohub,2013-04-02 07:02:00,
2013-04-02 03:04:00,36.1,20.3,29.97,West,281,5.0,7.0,52,0.00,,,0.00,meteohub,2013-04-02 07:04:00,
2013-04-02 03:05:00,36.1,20.3,29.97,WNW,291,3.0,7.0,52,0.00,,,0.00,meteohub,2013-04-02 07:05:00,
2013-04-02 03:07:00,36.1,20.3,29.97,WSW,244,0.0,7.0,52,0.00,,,0.00,meteohub,2013-04-02 07:07:00,
2013-04-02 03:10:00,36.1,20.7,29.97,NW,304,0.0,7.0,53,0.00,,,0.00,meteohub,2013-04-02 07:10:00,
2013-04-02 03:12:00,36.1,20.7,29.96,WNW,290,1.0,7.0,53,0.00,,,0.00,meteohub,2013-04-02 07:12:00,
2013-04-02 03:15:00,36.1,20.7,29.97,WSW,255,0.0,7.0,53,0.00,,,0.00,meteohub,2013-04-02 07:15:00,
2013-04-02 03:18:00,36.1,20.7,29.97,WNW,283,2.0,7.0,53,0.00,,,0.00,meteohub,2013-04-02 07:18:00,
2013-04-02 03:20:00,36.1,20.7,29.97,West,266,2.0,6.0,53,0.00,,,0.00,meteohub,2013-04-02 07:20:00,
2013-04-02 03:23:00,36.1,20.7,29.97,West,271,1.0,6.0,53,0.00,,,0.00,meteohub,2013-04-02 07:23:00,
2013-04-02 03:25:00,36.1,20.3,29.97,WNW,293,3.0,6.0,52,0.00,,,0.00,meteohub,2013-04-02 07:25:00,
2013-04-02 03:26:00,36.1,20.3,29.97,WNW,289,3.0,6.0,52,0.00,,,0.00,meteohub,2013-04-02 07:26:00,
2013-04-02 03:29:00,36.1,20.3,29.97,NW,309,0.0,6.0,52,0.00,,,0.00,meteohub,2013-04-02 07:29:00,
2013-04-02 03:30:00,36.1,20.3,29.97,WNW,295,0.0,5.0,52,0.00,,,0.00,meteohub,2013-04-02 07:30:00,
2013-04-02 03:31:00,36.1,20.3,29.97,WNW,285,0.0,5.0,52,0.00,,,0.00,meteohub,2013-04-02 07:31:00,
2013-04-02 03:34:00,36.1,20.3,29.96,WSW,253,1.0,5.0,52,0.00,,,0.00,meteohub,2013-04-02 07:34:00,
2013-04-02 03:35:00,36.1,20.3,29.97,NW,313,0.0,5.0,52,0.00,,,0.00,meteohub,2013-04-02 07:35:00,
2013-04-02 03:36:00,36.1,20.3,29.96,NW,314,1.0,5.0,52,0.00,,,0.00,meteohub,2013-04-02 07:36:00,
2013-04-02 03:39:00,36.1,19.8,29.97,WNW,292,2.0,5.0,51,0.00,,,0.00,meteohub,2013-04-02 07:39:00,
2013-04-02 03:41:00,36.1,20.3,29.96,WNW,291,0.0,5.0,52,0.00,,,0.00,meteohub,2013-04-02 07:41:00,
2013-04-02 03:43:00,36.1,20.3,29.96,WNW,286,1.0,5.0,52,0.00,,,0.00,meteohub,2013-04-02 07:43:00,
2013-04-02 03:44:00,36.1,20.7,29.96,WNW,286,0.0,5.0,53,0.00,,,0.00,meteohub,2013-04-02 07:44:00,
2013-04-02 03:46:00,36.1,20.7,29.96,WNW,288,1.0,4.0,53,0.00,,,0.00,meteohub,2013-04-02 07:46:00,
2013-04-02 03:48:00,36.0,20.5,29.97,WNW,292,2.0,4.0,53,0.00,,,0.00,meteohub,2013-04-02 07:48:00,
2013-04-02 03:49:00,36.0,20.5,29.96,WNW,290,2.0,4.0,53,0.00,,,0.00,meteohub,2013-04-02 07:49:00,
2013-04-02 03:51:00,36.0,20.5,29.96,WNW,284,2.0,4.0,53,0.00,,,0.00,meteohub,2013-04-02 07:51:00,
2013-04-02 03:52:00,36.0,20.5,29.96,WNW,291,1.0,4.0,53,0.00,,,0.00,meteohub,2013-04-02 07:52:00,
2013-04-02 03:53:00,36.0,20.1,29.97,WNW,289,2.0,4.0,52,0.00,,,0.00,meteohub,2013-04-02 07:53:00,
2013-04-02 03:55:00,36.0,20.1,29.96,WNW,292,1.0,4.0,52,0.00,,,0.00,meteohub,2013-04-02 07:55:00,
2013-04-02 03:56:00,36.0,20.1,29.96,WNW,294,1.0,4.0,52,0.00,,,0.00,meteohub,2013-04-02 07:56:00,
2013-04-02 03:57:00,36.0,19.6,29.96,WNW,286,2.0,4.0,51,0.00,,,0.00,meteohub,2013-04-02 07:57:00,
2013-04-02 03:58:00,36.0,19.6,29.97,WNW,291,2.0,4.0,51,0.00,,,0.00,meteohub,2013-04-02 07:58:00,
2013-04-02 04:00:00,36.0,19.6,29.97,WNW,291,1.0,5.0,51,0.00,,,0.00,meteohub,2013-04-02 08:00:00,
2013-04-02 04:02:00,36.0,19.6,29.97,WNW,292,0.0,5.0,51,0.00,,,0.00,meteohub,2013-04-02 08:02:00,
2013-04-02 04:04:00,36.0,19.6,29.97,WNW,288,2.0,5.0,51,0.00,,,0.00,meteohub,2013-04-02 08:04:00,
2013-04-02 04:05:00,36.0,19.6,29.97,WNW,290,1.0,5.0,51,0.00,,,0.00,meteohub,2013-04-02 08:05:00,
2013-04-02 04:08:00,36.0,19.0,29.97,WNW,293,2.0,5.0,50,0.00,,,0.00,meteohub,2013-04-02 08:08:00,
2013-04-02 04:09:00,36.0,19.0,29.97,WNW,293,2.0,5.0,50,0.00,,,0.00,meteohub,2013-04-02 08:09:00,
2013-04-02 04:10:00,36.0,19.0,29.97,WNW,286,1.0,6.0,50,0.00,,,0.00,meteohub,2013-04-02 08:10:00,
2013-04-02 04:13:00,36.0,19.0,29.97,WNW,286,2.0,6.0,50,0.00,,,0.00,meteohub,2013-04-02 08:13:00,
2013-04-02 04:14:00,36.0,19.0,29.97,WNW,286,1.0,6.0,50,0.00,,,0.00,meteohub,2013-04-02 08:14:00,
2013-04-02 04:15:00,35.8,19.0,29.97,WNW,286,1.0,6.0,50,0.00,,,0.00,meteohub,2013-04-02 08:15:00,
2013-04-02 04:18:00,35.8,19.0,29.97,NW,309,0.0,6.0,50,0.00,,,0.00,meteohub,2013-04-02 08:18:00,
2013-04-02 04:20:00,35.8,19.4,29.97,WNW,288,2.0,4.0,51,0.00,,,0.00,meteohub,2013-04-02 08:20:00,
2013-04-02 04:23:00,35.8,19.4,29.97,WNW,282,1.0,4.0,51,0.00,,,0.00,meteohub,2013-04-02 08:23:00,
2013-04-02 04:25:00,35.8,19.4,29.97,WNW,290,2.0,4.0,51,0.00,,,0.00,meteohub,2013-04-02 08:25:00,
2013-04-02 04:26:00,35.8,19.4,29.97,West,277,1.0,4.0,51,0.00,,,0.00,meteohub,2013-04-02 08:26:00,
2013-04-02 04:27:00,35.8,19.4,29.97,WNW,300,1.0,4.0,51,0.00,,,0.00,meteohub,2013-04-02 08:27:00,
2013-04-02 04:28:00,35.8,19.4,29.97,West,271,1.0,4.0,51,0.00,,,0.00,meteohub,2013-04-02 08:28:00,
2013-04-02 04:30:00,35.6,19.2,29.97,WNW,290,3.0,5.0,51,0.00,,,0.00,meteohub,2013-04-02 08:30:00,
2013-04-02 04:32:00,35.6,19.8,29.97,WNW,291,3.0,5.0,52,0.00,,,0.00,meteohub,2013-04-02 08:32:00,
2013-04-02 04:33:00,35.6,19.8,29.97,WNW,297,3.0,5.0,52,0.00,,,0.00,meteohub,2013-04-02 08:33:00,
2013-04-02 04:36:00,35.4,19.9,29.97,WNW,296,0.0,5.0,53,0.00,,,0.00,meteohub,2013-04-02 08:36:00,
2013-04-02 04:37:00,35.4,19.9,29.97,WNW,286,2.0,5.0,53,0.00,,,0.00,meteohub,2013-04-02 08:37:00,
2013-04-02 04:38:00,35.4,20.5,29.97,West,281,0.0,5.0,54,0.00,,,0.00,meteohub,2013-04-02 08:38:00,
2013-04-02 04:41:00,35.2,20.3,29.97,WNW,286,1.0,5.0,54,0.00,,,0.00,meteohub,2013-04-02 08:41:00,
2013-04-02 04:42:00,35.2,20.3,29.97,WNW,286,1.0,5.0,54,0.00,,,0.00,meteohub,2013-04-02 08:42:00,
2013-04-02 04:43:00,35.2,20.3,29.97,WNW,282,3.0,5.0,54,0.00,,,0.00,meteohub,2013-04-02 08:43:00,
2013-04-02 04:47:00,35.2,20.3,29.97,WNW,292,2.0,5.0,54,0.00,,,0.00,meteohub,2013-04-02 08:47:00,
2013-04-02 04:49:00,35.2,19.8,29.97,West,276,2.0,5.0,53,0.00,,,0.00,meteohub,2013-04-02 08:49:00,
2013-04-02 04:52:00,35.1,19.6,29.97,West,269,7.0,7.0,53,0.00,,,0.00,meteohub,2013-04-02 08:52:00,
2013-04-02 04:54:00,35.1,19.2,29.97,West,277,4.0,6.0,52,0.00,,,0.00,meteohub,2013-04-02 08:54:00,
2013-04-02 04:57:00,35.1,19.2,29.98,West,276,1.0,7.0,52,0.00,,,0.00,meteohub,2013-04-02 08:57:00,
2013-04-02 04:58:00,35.1,19.2,29.98,WNW,289,4.0,7.0,52,0.00,,,0.00,meteohub,2013-04-02 08:58:00,
2013-04-02 04:59:00,35.1,19.6,29.98,WNW,284,7.0,7.0,53,0.00,,,0.00,meteohub,2013-04-02 08:59:00,
2013-04-02 05:02:00,34.9,19.9,29.98,West,271,4.0,7.0,54,0.00,,,0.00,meteohub,2013-04-02 09:02:00,
2013-04-02 05:03:00,34.9,19.9,29.98,WNW,282,4.0,7.0,54,0.00,,,0.00,meteohub,2013-04-02 09:03:00,
2013-04-02 05:05:00,34.7,20.1,29.98,West,275,3.0,7.0,55,0.00,,,0.00,meteohub,2013-04-02 09:05:00,
2013-04-02 05:07:00,34.5,19.9,29.98,West,275,5.0,7.0,55,0.00,,,0.00,meteohub,2013-04-02 09:07:00,
2013-04-02 05:08:00,34.5,19.9,29.98,WSW,254,4.0,7.0,55,0.00,,,0.00,meteohub,2013-04-02 09:08:00,
2013-04-02 05:10:00,34.3,19.8,29.98,West,281,3.0,7.0,55,0.00,,,0.00,meteohub,2013-04-02 09:10:00,
2013-04-02 05:12:00,34.3,19.8,29.98,WNW,284,3.0,7.0,55,0.00,,,0.00,meteohub,2013-04-02 09:12:00,
2013-04-02 05:13:00,34.3,19.8,29.98,WNW,287,4.0,7.0,55,0.00,,,0.00,meteohub,2013-04-02 09:13:00,
2013-04-02 05:15:00,34.3,19.8,29.99,West,278,4.0,9.0,55,0.00,,,0.00,meteohub,2013-04-02 09:15:00,
2013-04-02 05:17:00,34.3,19.8,29.99,WNW,302,4.0,9.0,55,0.00,,,0.00,meteohub,2013-04-02 09:17:00,
2013-04-02 05:18:00,34.3,19.8,29.99,WNW,302,4.0,9.0,55,0.00,,,0.00,meteohub,2013-04-02 09:18:00,
2013-04-02 05:19:00,34.3,19.8,29.99,WNW,287,5.0,9.0,55,0.00,,,0.00,meteohub,2013-04-02 09:19:00,
2013-04-02 05:22:00,34.3,20.3,29.99,WNW,292,4.0,9.0,56,0.00,,,0.00,meteohub,2013-04-02 09:22:00,
2013-04-02 05:23:00,34.3,20.3,29.99,WNW,287,3.0,9.0,56,0.00,,,0.00,meteohub,2013-04-02 09:23:00,
2013-04-02 05:24:00,34.3,20.3,29.99,West,279,4.0,9.0,56,0.00,,,0.00,meteohub,2013-04-02 09:24:00,
2013-04-02 05:27:00,34.2,20.5,29.99,WNW,284,5.0,9.0,57,0.00,,,0.00,meteohub,2013-04-02 09:27:00,
2013-04-02 05:28:00,34.2,20.5,29.99,West,280,2.0,9.0,57,0.00,,,0.00,meteohub,2013-04-02 09:28:00,
2013-04-02 05:29:00,34.2,20.5,29.99,WNW,291,3.0,9.0,57,0.00,,,0.00,meteohub,2013-04-02 09:29:00,
2013-04-02 05:32:00,34.2,20.5,29.99,West,279,4.0,8.0,57,0.00,,,0.00,meteohub,2013-04-02 09:32:00,
2013-04-02 05:33:00,34.2,20.8,29.99,West,273,2.0,8.0,58,0.00,,,0.00,meteohub,2013-04-02 09:33:00,
2013-04-02 05:34:00,34.2,20.8,29.99,West,275,3.0,8.0,58,0.00,,,0.00,meteohub,2013-04-02 09:34:00,
2013-04-02 05:37:00,34.0,21.2,29.99,WNW,289,6.0,8.0,59,0.00,,,0.00,meteohub,2013-04-02 09:37:00,
2013-04-02 05:38:00,34.0,21.2,29.99,WNW,283,4.0,8.0,59,0.00,,,0.00,meteohub,2013-04-02 09:38:00,
2013-04-02 05:39:00,34.0,21.2,29.99,WNW,290,4.0,8.0,59,0.00,,,0.00,meteohub,2013-04-02 09:39:00,
2013-04-02 05:40:00,34.0,21.2,29.99,WNW,284,4.0,8.0,59,0.00,,,0.00,meteohub,2013-04-02 09:40:00,
2013-04-02 05:42:00,34.0,21.2,29.99,WNW,300,4.0,8.0,59,0.00,,,0.00,meteohub,2013-04-02 09:42:00,
2013-04-02 05:44:00,33.8,21.4,30.00,WNW,292,3.0,8.0,60,0.00,,,0.00,meteohub,2013-04-02 09:44:00,
2013-04-02 05:45:00,33.8,21.0,30.00,NW,310,5.0,9.0,59,0.00,,,0.00,meteohub,2013-04-02 09:45:00,
2013-04-02 05:47:00,34.0,21.6,30.00,WNW,285,3.0,9.0,60,0.00,,,0.00,meteohub,2013-04-02 09:47:00,
2013-04-02 05:49:00,34.0,21.6,30.00,NW,309,4.0,9.0,60,0.00,,,0.00,meteohub,2013-04-02 09:49:00,
2013-04-02 05:50:00,34.0,21.2,30.00,WNW,300,5.0,9.0,59,0.00,,,0.00,meteohub,2013-04-02 09:50:00,
2013-04-02 05:53:00,34.0,20.8,29.99,West,270,3.0,9.0,58,0.00,,,0.00,meteohub,2013-04-02 09:53:00,
2013-04-02 05:54:00,34.0,20.8,30.00,West,265,4.0,9.0,58,0.00,,,0.00,meteohub,2013-04-02 09:54:00,
2013-04-02 05:55:00,34.0,20.8,30.00,WSW,247,4.0,9.0,58,0.00,,,0.00,meteohub,2013-04-02 09:55:00,
2013-04-02 06:00:00,34.0,20.8,30.00,West,267,5.0,9.0,58,0.00,,,0.00,meteohub,2013-04-02 10:00:00,
2013-04-02 06:02:00,33.8,20.7,30.00,WNW,290,2.0,8.0,58,0.00,,,0.00,meteohub,2013-04-02 10:02:00,
2013-04-02 06:05:00,33.8,20.7,30.00,WNW,292,3.0,8.0,58,0.00,,,0.00,meteohub,2013-04-02 10:05:00,
2013-04-02 06:06:00,33.8,20.7,30.00,WNW,289,3.0,7.0,58,0.00,,,0.00,meteohub,2013-04-02 10:06:00,
2013-04-02 06:07:00,33.8,20.7,30.00,NW,304,4.0,7.0,58,0.00,,,0.00,meteohub,2013-04-02 10:07:00,
2013-04-02 06:11:00,33.8,20.7,30.00,NW,317,2.0,7.0,58,0.00,,,0.00,meteohub,2013-04-02 10:11:00,
2013-04-02 06:12:00,33.8,20.7,30.00,WNW,302,3.0,7.0,58,0.00,,,0.00,meteohub,2013-04-02 10:12:00,
2013-04-02 06:16:00,33.8,20.7,30.00,WNW,292,6.0,7.0,58,0.00,,,0.00,meteohub,2013-04-02 10:16:00,
2013-04-02 06:17:00,33.6,20.5,30.00,WNW,286,3.0,7.0,58,0.00,,,0.00,meteohub,2013-04-02 10:17:00,
2013-04-02 06:18:00,33.6,20.8,30.00,West,279,3.0,7.0,59,0.00,,,0.00,meteohub,2013-04-02 10:18:00,
2013-04-02 06:21:00,33.6,20.8,30.00,West,278,5.0,7.0,59,0.00,,,0.00,meteohub,2013-04-02 10:21:00,
2013-04-02 06:22:00,33.6,20.8,30.00,WNW,301,4.0,7.0,59,0.00,,,0.00,meteohub,2013-04-02 10:22:00,
2013-04-02 06:23:00,33.6,20.8,30.00,WNW,288,3.0,7.0,59,0.00,,,0.00,meteohub,2013-04-02 10:23:00,
2013-04-02 06:26:00,33.6,20.5,30.01,WNW,294,4.0,7.0,58,0.00,,,0.00,meteohub,2013-04-02 10:26:00,
2013-04-02 06:27:00,33.8,20.7,30.01,West,263,4.0,7.0,58,0.00,,,0.00,meteohub,2013-04-02 10:27:00,
2013-04-02 06:28:00,33.8,20.7,30.01,WNW,284,5.0,7.0,58,0.00,,,0.00,meteohub,2013-04-02 10:28:00,
2013-04-02 06:32:00,33.8,20.1,30.01,West,280,3.0,7.0,57,0.00,,,0.00,meteohub,2013-04-02 10:32:00,
2013-04-02 06:33:00,33.8,20.1,30.01,WNW,284,4.0,7.0,57,0.00,,,0.00,meteohub,2013-04-02 10:33:00,
2013-04-02 06:37:00,33.8,20.7,30.01,West,276,7.0,8.0,58,0.00,,,0.00,meteohub,2013-04-02 10:37:00,
2013-04-02 06:38:00,33.6,20.5,30.01,WNW,294,3.0,8.0,58,0.00,,,0.00,meteohub,2013-04-02 10:38:00,
2013-04-02 06:39:00,33.6,20.5,30.01,West,266,4.0,8.0,58,0.00,,,0.00,meteohub,2013-04-02 10:39:00,
2013-04-02 06:42:00,33.6,20.5,30.01,West,267,2.0,8.0,58,0.00,,,0.00,meteohub,2013-04-02 10:42:00,
2013-04-02 06:43:00,33.6,20.5,30.01,WNW,303,5.0,8.0,58,0.00,,,0.00,meteohub,2013-04-02 10:43:00,
2013-04-02 06:44:00,33.6,20.5,30.01,WNW,290,3.0,8.0,58,0.00,,,0.00,meteohub,2013-04-02 10:44:00,
2013-04-02 06:47:00,33.4,20.3,30.01,WNW,284,3.0,8.0,58,0.00,,,0.00,meteohub,2013-04-02 10:47:00,
2013-04-02 06:48:00,33.6,20.5,30.01,WNW,294,3.0,8.0,58,0.00,,,0.00,meteohub,2013-04-02 10:48:00,
2013-04-02 06:49:00,33.6,20.5,30.01,WNW,282,4.0,8.0,58,0.00,,,0.00,meteohub,2013-04-02 10:49:00,
2013-04-02 06:52:00,33.6,20.5,30.02,West,273,6.0,8.0,58,0.00,,,0.00,meteohub,2013-04-02 10:52:00,
2013-04-02 06:53:00,33.6,20.5,30.02,West,265,5.0,8.0,58,0.00,,,0.00,meteohub,2013-04-02 10:53:00,
2013-04-02 06:54:00,33.6,19.9,30.02,West,280,3.0,8.0,57,0.00,,,0.00,meteohub,2013-04-02 10:54:00,
2013-04-02 06:58:00,33.6,19.9,30.02,WNW,282,3.0,8.0,57,0.00,,,0.00,meteohub,2013-04-02 10:58:00,
2013-04-02 07:00:00,33.6,20.5,30.02,WNW,285,5.0,8.0,58,0.00,,,0.00,meteohub,2013-04-02 11:00:00,
2013-04-02 07:03:00,33.6,20.5,30.02,WNW,290,5.0,8.0,58,0.00,,,0.00,meteohub,2013-04-02 11:03:00,
2013-04-02 07:06:00,33.6,20.5,30.02,West,273,4.0,8.0,58,0.00,,,0.00,meteohub,2013-04-02 11:06:00,
2013-04-02 07:08:00,33.6,20.5,30.02,WNW,290,3.0,8.0,58,0.00,,,0.00,meteohub,2013-04-02 11:08:00,
2013-04-02 07:09:00,33.6,20.5,30.02,WNW,292,5.0,8.0,58,0.00,,,0.00,meteohub,2013-04-02 11:09:00,
2013-04-02 07:11:00,33.6,20.8,30.03,WNW,292,2.0,7.0,59,0.00,,,0.00,meteohub,2013-04-02 11:11:00,
2013-04-02 07:13:00,33.6,20.8,30.03,West,269,2.0,7.0,59,0.00,,,0.00,meteohub,2013-04-02 11:13:00,
2013-04-02 07:14:00,33.6,20.8,30.03,West,277,8.0,8.0,59,0.00,,,0.00,meteohub,2013-04-02 11:14:00,
2013-04-02 07:17:00,33.8,21.0,30.03,WNW,288,6.0,7.0,59,0.00,,,0.00,meteohub,2013-04-02 11:17:00,
2013-04-02 07:18:00,33.8,21.4,30.03,WSW,257,3.0,7.0,60,0.00,,,0.00,meteohub,2013-04-02 11:18:00,
2013-04-02 07:19:00,33.8,21.4,30.03,West,268,3.0,7.0,60,0.00,,,0.00,meteohub,2013-04-02 11:19:00,
2013-04-02 07:20:00,34.0,21.2,30.03,WNW,298,4.0,8.0,59,0.00,,,0.00,meteohub,2013-04-02 11:20:00,
2013-04-02 07:22:00,34.0,21.2,30.03,West,278,2.0,8.0,59,0.00,,,0.00,meteohub,2013-04-02 11:22:00,
2013-04-02 07:24:00,34.2,21.4,30.03,West,267,6.0,8.0,59,0.00,,,0.00,meteohub,2013-04-02 11:24:00,
2013-04-02 07:25:00,34.3,21.6,30.03,West,276,5.0,8.0,59,0.00,,,0.00,meteohub,2013-04-02 11:25:00,
2013-04-02 07:27:00,34.3,21.6,30.03,WNW,293,3.0,8.0,59,0.00,,,0.00,meteohub,2013-04-02 11:27:00,
2013-04-02 07:29:00,34.5,21.7,30.03,West,276,5.0,8.0,59,0.00,,,0.00,meteohub,2013-04-02 11:29:00,
2013-04-02 07:30:00,34.5,21.7,30.03,West,264,2.0,8.0,59,0.00,,,0.00,meteohub,2013-04-02 11:30:00,
2013-04-02 07:33:00,34.9,21.9,30.03,West,274,3.0,8.0,59,0.00,,,0.00,meteohub,2013-04-02 11:33:00,
2013-04-02 07:34:00,35.1,22.1,30.04,West,269,3.0,8.0,59,0.00,,,0.00,meteohub,2013-04-02 11:34:00,
2013-04-02 07:35:00,35.1,22.1,30.03,West,269,2.0,8.0,59,0.00,,,0.00,meteohub,2013-04-02 11:35:00,
2013-04-02 07:36:00,35.2,22.3,30.04,West,278,2.0,8.0,59,0.00,,,0.00,meteohub,2013-04-02 11:36:00,
2013-04-02 07:38:00,35.2,22.8,30.04,WNW,286,2.0,8.0,60,0.00,,,0.00,meteohub,2013-04-02 11:38:00,
2013-04-02 07:39:00,35.4,23.0,30.04,West,269,1.0,8.0,60,0.00,,,0.00,meteohub,2013-04-02 11:39:00,
2013-04-02 07:40:00,35.4,23.0,30.04,West,281,3.0,8.0,60,0.00,,,0.00,meteohub,2013-04-02 11:40:00,
2013-04-02 07:41:00,35.6,22.6,30.04,West,281,4.0,8.0,59,0.00,,,0.00,meteohub,2013-04-02 11:41:00,
2013-04-02 07:44:00,35.8,22.1,30.04,WNW,286,5.0,8.0,57,0.00,,,0.00,meteohub,2013-04-02 11:44:00,
2013-04-02 07:45:00,36.0,21.7,30.04,West,265,4.0,9.0,56,0.00,,,0.00,meteohub,2013-04-02 11:45:00,
2013-04-02 07:47:00,36.0,21.7,30.04,WSW,240,4.0,9.0,56,0.00,,,0.00,meteohub,2013-04-02 11:47:00,
2013-04-02 07:49:00,36.1,21.6,30.04,West,281,2.0,9.0,55,0.00,,,0.00,meteohub,2013-04-02 11:49:00,
2013-04-02 07:50:00,36.3,21.2,30.04,WSW,244,2.0,9.0,54,0.00,,,0.00,meteohub,2013-04-02 11:50:00,
2013-04-02 07:52:00,36.3,20.8,30.04,WNW,289,3.0,9.0,53,0.00,,,0.00,meteohub,2013-04-02 11:52:00,
2013-04-02 07:54:00,36.7,20.7,30.04,West,274,4.0,9.0,52,0.00,,,0.00,meteohub,2013-04-02 11:54:00,
2013-04-02 07:55:00,36.7,20.7,30.04,WSW,250,7.0,9.0,52,0.00,,,0.00,meteohub,2013-04-02 11:55:00,
2013-04-02 07:56:00,36.7,20.7,30.04,SW,235,7.0,9.0,52,0.00,,,0.00,meteohub,2013-04-02 11:56:00,
2013-04-02 07:57:00,36.9,20.5,30.04,SW,234,5.0,9.0,51,0.00,,,0.00,meteohub,2013-04-02 11:57:00,
2013-04-02 08:00:00,37.0,20.7,30.04,WSW,240,5.0,9.0,51,0.00,,,0.00,meteohub,2013-04-02 12:00:00,
2013-04-02 08:01:00,37.0,21.0,30.04,WSW,242,5.0,7.0,52,0.00,,,0.00,meteohub,2013-04-02 12:01:00,
2013-04-02 08:04:00,37.0,21.6,30.04,SW,232,3.0,7.0,53,0.00,,,0.00,meteohub,2013-04-02 12:04:00,
2013-04-02 08:05:00,37.0,21.0,30.04,WSW,254,4.0,9.0,52,0.00,,,0.00,meteohub,2013-04-02 12:05:00,
2013-04-02 08:06:00,37.2,21.2,30.04,WSW,245,2.0,9.0,52,0.00,,,0.00,meteohub,2013-04-02 12:06:00,
2013-04-02 08:07:00,37.2,21.7,30.04,WSW,246,1.0,9.0,53,0.00,,,0.00,meteohub,2013-04-02 12:07:00,
2013-04-02 08:09:00,37.2,21.7,30.04,WSW,243,4.0,9.0,53,0.00,,,0.00,meteohub,2013-04-02 12:09:00,
2013-04-02 08:10:00,37.4,21.4,30.04,West,259,1.0,9.0,52,0.00,,,0.00,meteohub,2013-04-02 12:10:00,
2013-04-02 08:11:00,37.6,21.9,30.04,SW,234,3.0,9.0,53,0.00,,,0.00,meteohub,2013-04-02 12:11:00,
2013-04-02 08:13:00,37.6,21.6,30.04,West,264,8.0,9.0,52,0.00,,,0.00,meteohub,2013-04-02 12:13:00,
2013-04-02 08:14:00,37.6,21.6,30.05,WSW,254,6.0,9.0,52,0.00,,,0.00,meteohub,2013-04-02 12:14:00,
2013-04-02 08:17:00,37.8,21.7,30.04,WNW,298,4.0,9.0,52,0.00,,,0.00,meteohub,2013-04-02 12:17:00,
2013-04-02 08:18:00,37.8,21.7,30.04,SW,234,7.0,9.0,52,0.00,,,0.00,meteohub,2013-04-02 12:18:00,
2013-04-02 08:19:00,37.8,21.7,30.05,West,269,3.0,9.0,52,0.00,,,0.00,meteohub,2013-04-02 12:19:00,
2013-04-02 08:22:00,37.8,21.2,30.05,WSW,250,5.0,9.0,51,0.00,,,0.00,meteohub,2013-04-02 12:22:00,
2013-04-02 08:23:00,37.8,21.2,30.05,West,265,4.0,9.0,51,0.00,,,0.00,meteohub,2013-04-02 12:23:00,
2013-04-02 08:25:00,37.8,21.2,30.05,WSW,246,1.0,9.0,51,0.00,,,0.00,meteohub,2013-04-02 12:25:00,
2013-04-02 08:27:00,37.8,21.2,30.05,West,281,6.0,9.0,51,0.00,,,0.00,meteohub,2013-04-02 12:27:00,
2013-04-02 08:29:00,37.8,21.2,30.05,West,267,4.0,9.0,51,0.00,,,0.00,meteohub,2013-04-02 12:29:00,
2013-04-02 08:30:00,37.8,20.8,30.05,WSW,243,4.0,10.0,50,0.00,,,0.00,meteohub,2013-04-02 12:30:00,
2013-04-02 08:32:00,37.8,21.2,30.05,West,277,4.0,10.0,51,0.00,,,0.00,meteohub,2013-04-02 12:32:00,
2013-04-02 08:34:00,37.8,21.2,30.05,WSW,248,5.0,10.0,51,0.00,,,0.00,meteohub,2013-04-02 12:34:00,
2013-04-02 08:36:00,37.9,21.4,30.05,WNW,296,6.0,10.0,51,0.00,,,0.00,meteohub,2013-04-02 12:36:00,
2013-04-02 08:38:00,37.9,21.4,30.05,WSW,240,4.0,10.0,51,0.00,,,0.00,meteohub,2013-04-02 12:38:00,
2013-04-02 08:39:00,37.9,21.0,30.05,WNW,292,6.0,10.0,50,0.00,,,0.00,meteohub,2013-04-02 12:39:00,
2013-04-02 08:41:00,37.9,21.0,30.05,SW,235,4.0,10.0,50,0.00,,,0.00,meteohub,2013-04-02 12:41:00,
2013-04-02 08:43:00,38.1,20.7,30.05,West,263,5.0,10.0,49,0.00,,,0.00,meteohub,2013-04-02 12:43:00,
2013-04-02 08:44:00,38.1,20.1,30.05,West,273,4.0,10.0,48,0.00,,,0.00,meteohub,2013-04-02 12:44:00,
2013-04-02 08:47:00,38.1,20.1,30.05,WNW,290,3.0,10.0,48,0.00,,,0.00,meteohub,2013-04-02 12:47:00,
2013-04-02 08:48:00,38.1,19.6,30.05,WSW,238,3.0,10.0,47,0.00,,,0.00,meteohub,2013-04-02 12:48:00,
2013-04-02 08:49:00,38.3,20.3,30.05,West,277,8.0,10.0,48,0.00,,,0.00,meteohub,2013-04-02 12:49:00,
2013-04-02 08:51:00,38.3,20.3,30.05,West,267,4.0,11.0,48,0.00,,,0.00,meteohub,2013-04-02 12:51:00,
2013-04-02 08:52:00,38.5,20.5,30.05,WSW,240,5.0,11.0,48,0.00,,,0.00,meteohub,2013-04-02 12:52:00,
2013-04-02 08:54:00,38.5,19.6,30.05,WNW,289,2.0,11.0,46,0.00,,,0.00,meteohub,2013-04-02 12:54:00,
2013-04-02 08:55:00,38.5,19.9,30.05,West,280,8.0,11.0,47,0.00,,,0.00,meteohub,2013-04-02 12:55:00,
2013-04-02 08:56:00,38.5,19.6,30.05,West,271,7.0,11.0,46,0.00,,,0.00,meteohub,2013-04-02 12:56:00,
2013-04-02 08:57:00,38.7,20.1,30.05,WNW,297,12.0,12.0,47,0.00,,,0.00,meteohub,2013-04-02 12:57:00,
2013-04-02 08:59:00,38.7,19.2,30.05,WSW,251,6.0,11.0,45,0.00,,,0.00,meteohub,2013-04-02 12:59:00,
2013-04-02 09:00:00,38.7,19.2,30.05,West,272,2.0,12.0,45,0.00,,,0.00,meteohub,2013-04-02 13:00:00,
2013-04-02 09:01:00,38.7,19.2,30.05,WNW,290,6.0,12.0,45,0.00,,,0.00,meteohub,2013-04-02 13:01:00,
2013-04-02 09:03:00,38.7,19.6,30.05,WNW,287,5.0,12.0,46,0.00,,,0.00,meteohub,2013-04-02 13:03:00,
2013-04-02 09:05:00,38.8,19.8,30.05,WNW,288,5.0,12.0,46,0.00,,,0.00,meteohub,2013-04-02 13:05:00,
2013-04-02 09:07:00,38.8,19.8,30.05,NW,306,9.0,12.0,46,0.00,,,0.00,meteohub,2013-04-02 13:07:00,
2013-04-02 09:08:00,38.8,20.3,30.05,WNW,287,5.0,12.0,47,0.00,,,0.00,meteohub,2013-04-02 13:08:00,
2013-04-02 09:10:00,39.0,19.9,30.05,West,281,5.0,12.0,46,0.00,,,0.00,meteohub,2013-04-02 13:10:00,
2013-04-02 09:12:00,39.4,19.8,30.05,NW,315,6.0,12.0,45,0.00,,,0.00,meteohub,2013-04-02 13:12:00,
2013-04-02 09:13:00,39.4,20.3,30.05,WSW,249,11.0,12.0,46,0.00,,,0.00,meteohub,2013-04-02 13:13:00,
2013-04-02 09:16:00,39.4,19.2,30.05,West,269,5.0,12.0,44,0.00,,,0.00,meteohub,2013-04-02 13:16:00,
2013-04-02 09:17:00,39.4,18.7,30.05,West,273,3.0,12.0,43,0.00,,,0.00,meteohub,2013-04-02 13:17:00,
2013-04-02 09:18:00,39.4,19.2,30.05,WNW,290,8.0,12.0,44,0.00,,,0.00,meteohub,2013-04-02 13:18:00,
2013-04-02 09:22:00,39.4,19.2,30.05,NW,310,8.0,12.0,44,0.00,,,0.00,meteohub,2013-04-02 13:22:00,
2013-04-02 09:23:00,39.4,18.7,30.05,WNW,292,9.0,12.0,43,0.00,,,0.00,meteohub,2013-04-02 13:23:00,
2013-04-02 09:27:00,39.6,19.4,30.04,WSW,237,3.0,12.0,44,0.00,,,0.00,meteohub,2013-04-02 13:27:00,
2013-04-02 09:29:00,39.7,18.5,30.04,WSW,252,4.0,12.0,42,0.00,,,0.00,meteohub,2013-04-02 13:29:00,
2013-04-02 09:32:00,39.6,18.3,30.05,WNW,284,13.0,13.0,42,0.00,,,0.00,meteohub,2013-04-02 13:32:00,
2013-04-02 09:33:00,39.6,18.3,30.05,WNW,292,8.0,11.0,42,0.00,,,0.00,meteohub,2013-04-02 13:33:00,
2013-04-02 09:34:00,39.6,17.2,30.05,NW,309,2.0,11.0,40,0.00,,,0.00,meteohub,2013-04-02 13:34:00,
2013-04-02 09:35:00,39.6,17.8,30.05,WNW,286,11.0,11.0,41,0.00,,,0.00,meteohub,2013-04-02 13:35:00,
2013-04-02 09:37:00,39.6,17.8,30.05,WNW,292,12.0,18.0,41,0.00,,,0.00,meteohub,2013-04-02 13:37:00,
2013-04-02 09:38:00,39.6,17.8,30.05,West,280,8.0,18.0,41,0.00,,,0.00,meteohub,2013-04-02 13:38:00,
2013-04-02 09:39:00,39.6,17.2,30.05,WNW,284,8.0,18.0,40,0.00,,,0.00,meteohub,2013-04-02 13:39:00,
2013-04-02 09:40:00,39.6,17.8,30.05,WNW,286,10.0,18.0,41,0.00,,,0.00,meteohub,2013-04-02 13:40:00,
2013-04-02 09:43:00,39.6,17.2,30.05,West,267,5.0,18.0,40,0.00,,,0.00,meteohub,2013-04-02 13:43:00,
2013-04-02 09:44:00,39.6,17.8,30.05,WNW,282,4.0,18.0,41,0.00,,,0.00,meteohub,2013-04-02 13:44:00,
2013-04-02 09:46:00,39.7,19.0,30.05,SSW,208,3.0,18.0,43,0.00,,,0.00,meteohub,2013-04-02 13:46:00,
2013-04-02 09:48:00,40.3,20.1,30.05,WNW,294,13.0,18.0,44,0.00,,,0.00,meteohub,2013-04-02 13:48:00,
2013-04-02 09:50:00,40.3,19.6,30.05,WNW,303,9.0,18.0,43,0.00,,,0.00,meteohub,2013-04-02 13:50:00,
2013-04-02 09:51:00,40.3,19.0,30.05,WNW,296,10.0,16.0,42,0.00,,,0.00,meteohub,2013-04-02 13:51:00,
2013-04-02 09:53:00,40.5,19.8,30.05,NE,49,3.0,16.0,43,0.00,,,0.00,meteohub,2013-04-02 13:53:00,
2013-04-02 09:55:00,40.6,19.9,30.04,West,271,5.0,16.0,43,0.00,,,0.00,meteohub,2013-04-02 13:55:00,
2013-04-02 09:56:00,40.8,20.1,30.04,West,281,8.0,16.0,43,0.00,,,0.00,meteohub,2013-04-02 13:56:00,
2013-04-02 09:58:00,41.0,19.6,30.04,WNW,288,4.0,16.0,42,0.00,,,0.00,meteohub,2013-04-02 13:58:00,
2013-04-02 10:00:00,41.2,19.8,30.04,West,280,11.0,16.0,42,0.00,,,0.00,meteohub,2013-04-02 14:00:00,
2013-04-02 10:02:00,41.2,19.2,30.04,WNW,302,7.0,16.0,41,0.00,,,0.00,meteohub,2013-04-02 14:02:00,
2013-04-02 10:03:00,41.2,19.2,30.04,West,272,2.0,16.0,41,0.00,,,0.00,meteohub,2013-04-02 14:03:00,
2013-04-02 10:04:00,41.2,19.2,30.04,West,265,3.0,16.0,41,0.00,,,0.00,meteohub,2013-04-02 14:04:00,
2013-04-02 10:05:00,41.2,19.2,30.04,WNW,300,11.0,12.0,41,0.00,,,0.00,meteohub,2013-04-02 14:05:00,
2013-04-02 10:07:00,41.0,18.5,30.04,West,263,5.0,12.0,40,0.00,,,0.00,meteohub,2013-04-02 14:07:00,
2013-04-02 10:09:00,41.0,19.0,30.04,WSW,252,11.0,12.0,41,0.00,,,0.00,meteohub,2013-04-02 14:09:00,
2013-04-02 10:10:00,41.0,18.5,30.04,West,271,4.0,17.0,40,0.00,,,0.00,meteohub,2013-04-02 14:10:00,
2013-04-02 10:13:00,41.2,18.7,30.04,WNW,302,7.0,17.0,40,0.00,,,0.00,meteohub,2013-04-02 14:13:00,
2013-04-02 10:14:00,41.2,18.1,30.04,WNW,294,7.0,17.0,39,0.00,,,0.00,meteohub,2013-04-02 14:14:00,
2013-04-02 10:16:00,41.2,18.7,30.04,WSW,257,3.0,17.0,40,0.00,,,0.00,meteohub,2013-04-02 14:16:00,
2013-04-02 10:18:00,41.5,19.0,30.04,WNW,292,10.0,17.0,40,0.00,,,0.00,meteohub,2013-04-02 14:18:00,
2013-04-02 10:19:00,41.5,18.5,30.04,WNW,294,4.0,17.0,39,0.00,,,0.00,meteohub,2013-04-02 14:19:00,
2013-04-02 10:20:00,41.5,18.5,30.04,WSW,251,8.0,17.0,39,0.00,,,0.00,meteohub,2013-04-02 14:20:00,
2013-04-02 10:21:00,41.7,19.2,30.04,WNW,292,11.0,17.0,40,0.00,,,0.00,meteohub,2013-04-02 14:21:00,
2013-04-02 10:23:00,41.7,18.5,30.04,WNW,300,13.0,17.0,39,0.00,,,0.00,meteohub,2013-04-02 14:23:00,
2013-04-02 10:24:00,41.5,17.8,30.04,NW,313,5.0,17.0,38,0.00,,,0.00,meteohub,2013-04-02 14:24:00,
2013-04-02 10:25:00,41.5,17.8,30.04,West,277,3.0,17.0,38,0.00,,,0.00,meteohub,2013-04-02 14:25:00,
2013-04-02 10:27:00,41.4,17.6,30.04,West,280,13.0,17.0,38,0.00,,,0.00,meteohub,2013-04-02 14:27:00,
2013-04-02 10:28:00,41.4,17.6,30.04,WNW,302,9.0,17.0,38,0.00,,,0.00,meteohub,2013-04-02 14:28:00,
2013-04-02 10:30:00,41.5,18.5,30.04,West,277,3.0,17.0,39,0.00,,,0.00,meteohub,2013-04-02 14:30:00,
2013-04-02 10:32:00,41.7,19.2,30.04,WNW,300,4.0,17.0,40,0.00,,,0.00,meteohub,2013-04-02 14:32:00,
2013-04-02 10:33:00,41.9,19.4,30.04,West,281,14.0,17.0,40,0.00,,,0.00,meteohub,2013-04-02 14:33:00,
2013-04-02 10:35:00,41.9,18.1,30.04,West,269,7.0,17.0,38,0.00,,,0.00,meteohub,2013-04-02 14:35:00,
2013-04-02 10:36:00,41.9,18.1,30.04,NW,319,7.0,17.0,38,0.00,,,0.00,meteohub,2013-04-02 14:36:00,
2013-04-02 10:38:00,42.1,19.6,30.04,WNW,288,5.0,17.0,40,0.00,,,0.00,meteohub,2013-04-02 14:38:00,
2013-04-02 10:39:00,42.3,20.3,30.04,NNE,18,5.0,17.0,41,0.00,,,0.00,meteohub,2013-04-02 14:39:00,
2013-04-02 10:40:00,42.4,20.5,30.04,WSW,250,3.0,17.0,41,0.00,,,0.00,meteohub,2013-04-02 14:40:00,
2013-04-02 10:41:00,42.4,20.5,30.04,SW,215,9.0,17.0,41,0.00,,,0.00,meteohub,2013-04-02 14:41:00,
2013-04-02 10:43:00,42.6,19.4,30.04,West,278,7.0,17.0,39,0.00,,,0.00,meteohub,2013-04-02 14:43:00,
2013-04-02 10:44:00,42.6,18.9,30.04,WNW,298,8.0,17.0,38,0.00,,,0.00,meteohub,2013-04-02 14:44:00,
2013-04-02 10:45:00,42.4,18.0,30.04,NW,305,9.0,17.0,37,0.00,,,0.00,meteohub,2013-04-02 14:45:00,
2013-04-02 10:47:00,42.4,18.7,30.04,NW,319,11.0,17.0,38,0.00,,,0.00,meteohub,2013-04-02 14:47:00,
2013-04-02 10:49:00,42.3,17.2,30.04,West,264,11.0,17.0,36,0.00,,,0.00,meteohub,2013-04-02 14:49:00,
2013-04-02 10:50:00,42.1,17.1,30.04,WNW,286,12.0,18.0,36,0.00,,,0.00,meteohub,2013-04-02 14:50:00,
2013-04-02 10:54:00,42.1,17.6,30.04,WNW,285,8.0,18.0,37,0.00,,,0.00,meteohub,2013-04-02 14:54:00,
2013-04-02 10:56:00,42.1,17.6,30.04,WSW,246,10.0,18.0,37,0.00,,,0.00,meteohub,2013-04-02 14:56:00,
2013-04-02 10:59:00,42.1,17.6,30.04,West,269,7.0,18.0,37,0.00,,,0.00,meteohub,2013-04-02 14:59:00,
2013-04-02 11:00:00,42.3,18.5,30.04,NW,312,5.0,18.0,38,0.00,,,0.00,meteohub,2013-04-02 15:00:00,
2013-04-02 11:01:00,42.3,18.5,30.04,West,280,5.0,18.0,38,0.00,,,0.00,meteohub,2013-04-02 15:01:00,
2013-04-02 11:04:00,42.4,19.2,30.04,West,259,8.0,18.0,39,0.00,,,0.00,meteohub,2013-04-02 15:04:00,
2013-04-02 11:05:00,42.6,18.9,30.04,WNW,284,10.0,18.0,38,0.00,,,0.00,meteohub,2013-04-02 15:05:00,
2013-04-02 11:06:00,42.6,18.9,30.04,West,265,14.0,18.0,38,0.00,,,0.00,meteohub,2013-04-02 15:06:00,
2013-04-02 11:09:00,42.3,17.8,30.04,WNW,286,9.0,18.0,37,0.00,,,0.00,meteohub,2013-04-02 15:09:00,
2013-04-02 11:11:00,42.3,17.8,30.04,West,271,7.0,17.0,37,0.00,,,0.00,meteohub,2013-04-02 15:11:00,
2013-04-02 11:14:00,42.4,18.7,30.04,WNW,300,6.0,17.0,38,0.00,,,0.00,meteohub,2013-04-02 15:14:00,
2013-04-02 11:15:00,42.6,19.9,30.04,West,273,8.0,17.0,40,0.00,,,0.00,meteohub,2013-04-02 15:15:00,
2013-04-02 11:16:00,42.8,19.6,30.04,West,273,16.0,17.0,39,0.00,,,0.00,meteohub,2013-04-02 15:16:00,
2013-04-02 11:17:00,42.8,19.6,30.04,West,275,11.0,17.0,39,0.00,,,0.00,meteohub,2013-04-02 15:17:00,
2013-04-02 11:19:00,42.6,17.6,30.04,WNW,286,11.0,17.0,36,0.00,,,0.00,meteohub,2013-04-02 15:19:00,
2013-04-02 11:20:00,42.4,18.0,30.04,WNW,287,11.0,23.0,37,0.00,,,0.00,meteohub,2013-04-02 15:20:00,
2013-04-02 11:21:00,42.3,16.5,30.04,West,279,7.0,23.0,35,0.00,,,0.00,meteohub,2013-04-02 15:21:00,
2013-04-02 11:22:00,42.3,16.5,30.04,West,264,5.0,23.0,35,0.00,,,0.00,meteohub,2013-04-02 15:22:00,
2013-04-02 11:24:00,42.4,18.7,30.03,SW,229,8.0,23.0,38,0.00,,,0.00,meteohub,2013-04-02 15:24:00,
2013-04-02 11:25:00,42.6,18.9,30.03,West,261,6.0,23.0,38,0.00,,,0.00,meteohub,2013-04-02 15:25:00,
2013-04-02 11:27:00,42.6,17.6,30.03,WNW,287,11.0,23.0,36,0.00,,,0.00,meteohub,2013-04-02 15:27:00,
2013-04-02 11:29:00,42.6,18.1,30.04,West,269,4.0,23.0,37,0.00,,,0.00,meteohub,2013-04-02 15:29:00,
2013-04-02 11:31:00,42.6,18.9,30.04,WNW,285,9.0,23.0,38,0.00,,,0.00,meteohub,2013-04-02 15:31:00,
2013-04-02 11:32:00,42.8,18.3,30.04,West,269,9.0,23.0,37,0.00,,,0.00,meteohub,2013-04-02 15:32:00,
2013-04-02 11:35:00,43.0,17.8,30.03,WNW,292,10.0,19.0,36,0.00,,,0.00,meteohub,2013-04-02 15:35:00,
2013-04-02 11:37:00,43.0,17.2,30.03,NW,308,6.0,19.0,35,0.00,,,0.00,meteohub,2013-04-02 15:37:00,
2013-04-02 11:38:00,43.0,17.2,30.04,WNW,294,11.0,19.0,35,0.00,,,0.00,meteohub,2013-04-02 15:38:00,
2013-04-02 11:41:00,43.2,19.2,30.03,SSW,200,7.0,19.0,38,0.00,,,0.00,meteohub,2013-04-02 15:41:00,
2013-04-02 11:42:00,43.2,18.7,30.03,NW,317,5.0,19.0,37,0.00,,,0.00,meteohub,2013-04-02 15:42:00,
2013-04-02 11:44:00,43.3,18.1,30.03,WNW,282,18.0,19.0,36,0.00,,,0.00,meteohub,2013-04-02 15:44:00,
2013-04-02 11:46:00,43.0,19.0,30.03,NW,311,13.0,20.0,38,0.00,,,0.00,meteohub,2013-04-02 15:46:00,
2013-04-02 11:47:00,43.2,18.7,30.03,WNW,284,14.0,20.0,37,0.00,,,0.00,meteohub,2013-04-02 15:47:00,
2013-04-02 11:49:00,43.3,18.1,30.03,West,281,4.0,20.0,36,0.00,,,0.00,meteohub,2013-04-02 15:49:00,
2013-04-02 11:51:00,43.5,18.3,30.04,West,279,11.0,20.0,36,0.00,,,0.00,meteohub,2013-04-02 15:51:00,
2013-04-02 11:52:00,43.5,17.6,30.03,WNW,286,10.0,20.0,35,0.00,,,0.00,meteohub,2013-04-02 15:52:00,
2013-04-02 11:55:00,43.3,17.6,30.03,West,279,18.0,20.0,35,0.00,,,0.00,meteohub,2013-04-02 15:55:00,
2013-04-02 11:57:00,43.3,18.1,30.03,WNW,300,15.0,20.0,36,0.00,,,0.00,meteohub,2013-04-02 15:57:00,
2013-04-02 11:58:00,43.3,18.1,30.03,WNW,284,15.0,20.0,36,0.00,,,0.00,meteohub,2013-04-02 15:58:00,
2013-04-02 12:01:00,43.3,17.6,30.03,WNW,292,15.0,22.0,35,0.00,,,0.00,meteohub,2013-04-02 16:01:00,
2013-04-02 12:02:00,43.5,18.3,30.03,SW,235,7.0,22.0,36,0.00,,,0.00,meteohub,2013-04-02 16:02:00,
2013-04-02 12:03:00,43.5,17.6,30.03,WNW,284,7.0,22.0,35,0.00,,,0.00,meteohub,2013-04-02 16:03:00,
2013-04-02 12:06:00,43.3,17.6,30.03,West,269,13.0,22.0,35,0.00,,,0.00,meteohub,2013-04-02 16:06:00,
2013-04-02 12:07:00,43.3,17.6,30.03,West,262,15.0,22.0,35,0.00,,,0.00,meteohub,2013-04-02 16:07:00,
2013-04-02 12:08:00,43.3,16.9,30.03,NW,304,6.0,22.0,34,0.00,,,0.00,meteohub,2013-04-02 16:08:00,
2013-04-02 12:11:00,43.5,16.3,30.03,West,277,6.0,19.0,33,0.00,,,0.00,meteohub,2013-04-02 16:11:00,
2013-04-02 12:12:00,43.5,16.3,30.03,WNW,283,8.0,19.0,33,0.00,,,0.00,meteohub,2013-04-02 16:12:00,
2013-04-02 12:13:00,43.5,16.3,30.03,WNW,288,9.0,19.0,33,0.00,,,0.00,meteohub,2013-04-02 16:13:00,
2013-04-02 12:17:00,43.5,17.1,30.02,WSW,254,5.0,18.0,34,0.00,,,0.00,meteohub,2013-04-02 16:17:00,
2013-04-02 12:18:00,43.5,17.1,30.02,WNW,298,10.0,18.0,34,0.00,,,0.00,meteohub,2013-04-02 16:18:00,
2013-04-02 12:22:00,43.7,17.2,30.02,WNW,284,6.0,18.0,34,0.00,,,0.00,meteohub,2013-04-02 16:22:00,
2013-04-02 12:23:00,43.9,18.0,30.02,West,275,5.0,18.0,35,0.00,,,0.00,meteohub,2013-04-02 16:23:00,
2013-04-02 12:27:00,44.4,16.3,30.02,NW,311,9.0,18.0,32,0.00,,,0.00,meteohub,2013-04-02 16:27:00,
2013-04-02 12:28:00,44.4,17.1,30.02,WNW,283,6.0,18.0,33,0.00,,,0.00,meteohub,2013-04-02 16:28:00,
2013-04-02 12:29:00,44.4,17.1,30.02,SW,229,1.0,18.0,33,0.00,,,0.00,meteohub,2013-04-02 16:29:00,
2013-04-02 12:33:00,44.8,19.4,30.02,West,275,5.0,18.0,36,0.00,,,0.00,meteohub,2013-04-02 16:33:00,
2013-04-02 12:34:00,45.0,18.3,30.02,WNW,298,10.0,18.0,34,0.00,,,0.00,meteohub,2013-04-02 16:34:00,
2013-04-02 12:38:00,44.4,17.8,30.02,NW,309,3.0,18.0,34,0.00,,,0.00,meteohub,2013-04-02 16:38:00,
2013-04-02 12:39:00,44.4,17.8,30.02,West,264,4.0,18.0,34,0.00,,,0.00,meteohub,2013-04-02 16:39:00,
2013-04-02 12:43:00,45.0,18.3,30.02,SW,230,7.0,18.0,34,0.00,,,0.00,meteohub,2013-04-02 16:43:00,
2013-04-02 12:44:00,45.0,18.9,30.02,West,261,8.0,18.0,35,0.00,,,0.00,meteohub,2013-04-02 16:44:00,
2013-04-02 12:45:00,44.8,17.4,30.02,West,263,9.0,18.0,33,0.00,,,0.00,meteohub,2013-04-02 16:45:00,
2013-04-02 12:48:00,44.4,19.0,30.02,SW,217,6.0,18.0,36,0.00,,,0.00,meteohub,2013-04-02 16:48:00,
2013-04-02 12:49:00,44.6,19.2,30.02,WSW,241,8.0,18.0,36,0.00,,,0.00,meteohub,2013-04-02 16:49:00,
2013-04-02 12:50:00,44.6,19.2,30.01,WSW,238,7.0,16.0,36,0.00,,,0.00,meteohub,2013-04-02 16:50:00,
2013-04-02 12:54:00,44.8,18.1,30.01,NW,320,5.0,16.0,34,0.00,,,0.00,meteohub,2013-04-02 16:54:00,
2013-04-02 12:55:00,44.8,18.1,30.01,West,281,11.0,16.0,34,0.00,,,0.00,meteohub,2013-04-02 16:55:00,
2013-04-02 12:59:00,45.1,20.5,30.01,West,281,6.0,23.0,37,0.00,,,0.00,meteohub,2013-04-02 16:59:00,
2013-04-02 13:00:00,45.1,19.0,30.01,WNW,301,7.0,23.0,35,0.00,,,0.00,meteohub,2013-04-02 17:00:00,
2013-04-02 13:05:00,45.1,18.5,30.01,West,277,17.0,23.0,34,0.00,,,0.00,meteohub,2013-04-02 17:05:00,
2013-04-02 13:06:00,45.1,19.0,30.01,WNW,293,12.0,23.0,35,0.00,,,0.00,meteohub,2013-04-02 17:06:00,
2013-04-02 13:10:00,44.8,16.7,30.01,West,278,8.0,22.0,32,0.00,,,0.00,meteohub,2013-04-02 17:10:00,
2013-04-02 13:12:00,45.0,18.3,30.01,West,273,7.0,22.0,34,0.00,,,0.00,meteohub,2013-04-02 17:12:00,
2013-04-02 13:16:00,45.3,18.7,30.01,West,269,5.0,22.0,34,0.00,,,0.00,meteohub,2013-04-02 17:16:00,
2013-04-02 13:17:00,45.3,18.7,30.01,WNW,302,7.0,22.0,34,0.00,,,0.00,meteohub,2013-04-02 17:17:00,
2013-04-02 13:22:00,45.1,18.5,30.00,West,271,7.0,22.0,34,0.00,,,0.00,meteohub,2013-04-02 17:22:00,
2013-04-02 13:23:00,45.0,18.3,30.00,WSW,251,6.0,22.0,34,0.00,,,0.00,meteohub,2013-04-02 17:23:00,
2013-04-02 13:27:00,45.0,19.6,30.01,WSW,258,11.0,17.0,36,0.00,,,0.00,meteohub,2013-04-02 17:27:00,
2013-04-02 13:28:00,45.0,18.3,30.01,WNW,297,12.0,17.0,34,0.00,,,0.00,meteohub,2013-04-02 17:28:00,
2013-04-02 13:32:00,45.0,17.6,30.00,WSW,246,14.0,17.0,33,0.00,,,0.00,meteohub,2013-04-02 17:32:00,
2013-04-02 13:34:00,45.1,18.5,30.00,WNW,286,5.0,17.0,34,0.00,,,0.00,meteohub,2013-04-02 17:34:00,
2013-04-02 13:37:00,45.3,18.7,30.01,WNW,290,4.0,16.0,34,0.00,,,0.00,meteohub,2013-04-02 17:37:00,
2013-04-02 13:39:00,45.1,19.0,30.00,West,259,11.0,16.0,35,0.00,,,0.00,meteohub,2013-04-02 17:39:00,
2013-04-02 13:42:00,45.1,18.5,30.00,NW,313,7.0,16.0,34,0.00,,,0.00,meteohub,2013-04-02 17:42:00,
2013-04-02 13:44:00,45.0,18.3,30.00,West,273,5.0,16.0,34,0.00,,,0.00,meteohub,2013-04-02 17:44:00,
2013-04-02 13:45:00,44.8,18.1,30.00,West,259,9.0,16.0,34,0.00,,,0.00,meteohub,2013-04-02 17:45:00,
2013-04-02 13:47:00,44.6,18.0,30.00,WNW,301,8.0,19.0,34,0.00,,,0.00,meteohub,2013-04-02 17:47:00,
2013-04-02 13:49:00,44.8,19.4,30.00,WNW,282,11.0,19.0,36,0.00,,,0.00,meteohub,2013-04-02 17:49:00,
2013-04-02 13:50:00,45.0,20.8,30.00,WSW,244,10.0,19.0,38,0.00,,,0.00,meteohub,2013-04-02 17:50:00,
2013-04-02 13:53:00,45.0,19.6,30.00,NW,309,6.0,19.0,36,0.00,,,0.00,meteohub,2013-04-02 17:53:00,
2013-04-02 13:54:00,45.1,20.5,30.00,West,265,9.0,19.0,37,0.00,,,0.00,meteohub,2013-04-02 17:54:00,
2013-04-02 13:55:00,45.1,19.8,30.00,WNW,303,8.0,19.0,36,0.00,,,0.00,meteohub,2013-04-02 17:55:00,
2013-04-02 13:59:00,45.1,19.8,30.00,WSW,244,8.0,19.0,36,0.00,,,0.00,meteohub,2013-04-02 17:59:00,
2013-04-02 14:00:00,45.1,21.0,30.00,West,261,6.0,19.0,38,0.00,,,0.00,meteohub,2013-04-02 18:00:00,
2013-04-02 14:04:00,45.1,18.5,30.00,West,279,4.0,20.0,34,0.00,,,0.00,meteohub,2013-04-02 18:04:00,
2013-04-02 14:06:00,45.1,19.0,30.00,West,280,16.0,21.0,35,0.00,,,0.00,meteohub,2013-04-02 18:06:00,
2013-04-02 14:09:00,45.0,18.3,30.00,WNW,285,5.0,21.0,34,0.00,,,0.00,meteohub,2013-04-02 18:09:00,
2013-04-02 14:12:00,45.0,18.3,30.00,WNW,286,13.0,21.0,34,0.00,,,0.00,meteohub,2013-04-02 18:12:00,
2013-04-02 14:14:00,45.1,18.5,30.00,NW,308,11.0,21.0,34,0.00,,,0.00,meteohub,2013-04-02 18:14:00,
2013-04-02 14:17:00,45.1,18.5,30.00,West,265,13.0,21.0,34,0.00,,,0.00,meteohub,2013-04-02 18:17:00,
2013-04-02 14:19:00,45.0,16.2,30.00,SW,236,7.0,21.0,31,0.00,,,0.00,meteohub,2013-04-02 18:19:00,
2013-04-02 14:23:00,45.1,18.5,30.00,West,275,10.0,21.0,34,0.00,,,0.00,meteohub,2013-04-02 18:23:00,
2013-04-02 14:25:00,45.0,18.3,30.00,WSW,238,13.0,21.0,34,0.00,,,0.00,meteohub,2013-04-02 18:25:00,
2013-04-02 14:28:00,45.0,18.3,30.00,NNW,327,8.0,21.0,34,0.00,,,0.00,meteohub,2013-04-02 18:28:00,
2013-04-02 14:31:00,45.5,18.7,30.00,WNW,302,10.0,21.0,34,0.00,,,0.00,meteohub,2013-04-02 18:31:00,
2013-04-02 14:33:00,45.9,19.0,30.00,West,273,5.0,21.0,34,0.00,,,0.00,meteohub,2013-04-02 18:33:00,
2013-04-02 14:34:00,45.9,19.0,30.00,West,274,5.0,21.0,34,0.00,,,0.00,meteohub,2013-04-02 18:34:00,
2013-04-02 14:36:00,46.0,19.2,30.00,NW,321,10.0,21.0,34,0.00,,,0.00,meteohub,2013-04-02 18:36:00,
2013-04-02 14:38:00,45.9,19.0,30.00,West,279,6.0,21.0,34,0.00,,,0.00,meteohub,2013-04-02 18:38:00,
2013-04-02 14:39:00,45.9,19.8,30.00,West,259,13.0,21.0,35,0.00,,,0.00,meteohub,2013-04-02 18:39:00,
2013-04-02 14:42:00,45.7,18.1,30.00,WSW,257,5.0,20.0,33,0.00,,,0.00,meteohub,2013-04-02 18:42:00,
2013-04-02 14:44:00,45.3,18.0,30.00,West,278,16.0,20.0,33,0.00,,,0.00,meteohub,2013-04-02 18:44:00,
2013-04-02 14:48:00,45.3,18.7,30.00,NW,311,12.0,20.0,34,0.00,,,0.00,meteohub,2013-04-02 18:48:00,
2013-04-02 14:50:00,45.1,17.8,30.00,WNW,282,8.0,20.0,33,0.00,,,0.00,meteohub,2013-04-02 18:50:00,
2013-04-02 14:52:00,45.1,17.1,29.99,WNW,292,14.0,22.0,32,0.00,,,0.00,meteohub,2013-04-02 18:52:00,
2013-04-02 14:53:00,45.1,17.8,30.00,West,275,13.0,22.0,33,0.00,,,0.00,meteohub,2013-04-02 18:53:00,
2013-04-02 14:55:00,45.0,18.3,30.00,WSW,247,15.0,22.0,34,0.00,,,0.00,meteohub,2013-04-02 18:55:00,
2013-04-02 14:57:00,44.8,18.1,30.00,West,277,15.0,22.0,34,0.00,,,0.00,meteohub,2013-04-02 18:57:00,
2013-04-02 14:58:00,44.8,18.9,30.00,West,271,8.0,22.0,35,0.00,,,0.00,meteohub,2013-04-02 18:58:00,
2013-04-02 15:00:00,45.0,18.3,29.99,West,271,10.0,22.0,34,0.00,,,0.00,meteohub,2013-04-02 19:00:00,
2013-04-02 15:02:00,45.3,19.2,30.00,West,277,7.0,22.0,35,0.00,,,0.00,meteohub,2013-04-02 19:02:00,
2013-04-02 15:03:00,45.5,19.4,30.00,WNW,300,8.0,22.0,35,0.00,,,0.00,meteohub,2013-04-02 19:03:00,
2013-04-02 15:05:00,45.7,18.1,29.99,WNW,287,14.0,22.0,33,0.00,,,0.00,meteohub,2013-04-02 19:05:00,
2013-04-02 15:08:00,45.1,18.5,30.00,West,269,14.0,22.0,34,0.00,,,0.00,meteohub,2013-04-02 19:08:00,
2013-04-02 15:10:00,44.8,17.4,30.00,WNW,297,13.0,22.0,33,0.00,,,0.00,meteohub,2013-04-02 19:10:00,
2013-04-02 15:13:00,45.0,17.6,30.00,WNW,289,17.0,22.0,33,0.00,,,0.00,meteohub,2013-04-02 19:13:00,
2013-04-02 15:15:00,45.1,17.8,29.99,NW,308,10.0,20.0,33,0.00,,,0.00,meteohub,2013-04-02 19:15:00,
2013-04-02 15:18:00,45.1,18.5,29.99,West,268,12.0,20.0,34,0.00,,,0.00,meteohub,2013-04-02 19:18:00,
2013-04-02 15:19:00,45.3,18.7,30.00,West,273,10.0,20.0,34,0.00,,,0.00,meteohub,2013-04-02 19:19:00,
2013-04-02 15:20:00,45.3,18.0,29.99,WSW,242,9.0,20.0,33,0.00,,,0.00,meteohub,2013-04-02 19:20:00,
2013-04-02 15:23:00,45.3,17.2,30.00,WNW,287,5.0,20.0,32,0.00,,,0.00,meteohub,2013-04-02 19:23:00,
2013-04-02 15:24:00,45.3,17.2,30.00,West,273,5.0,20.0,32,0.00,,,0.00,meteohub,2013-04-02 19:24:00,
2013-04-02 15:27:00,45.7,18.1,29.99,West,260,8.0,22.0,33,0.00,,,0.00,meteohub,2013-04-02 19:27:00,
2013-04-02 15:28:00,45.9,18.3,30.00,WNW,301,4.0,22.0,33,0.00,,,0.00,meteohub,2013-04-02 19:28:00,
2013-04-02 15:29:00,45.9,18.3,30.00,WSW,250,7.0,22.0,33,0.00,,,0.00,meteohub,2013-04-02 19:29:00,
2013-04-02 15:32:00,45.9,18.3,29.99,NNW,329,8.0,22.0,33,0.00,,,0.00,meteohub,2013-04-02 19:32:00,
2013-04-02 15:33:00,45.9,18.3,29.99,West,273,12.0,22.0,33,0.00,,,0.00,meteohub,2013-04-02 19:33:00,
2013-04-02 15:35:00,45.9,17.6,29.99,West,278,5.0,22.0,32,0.00,,,0.00,meteohub,2013-04-02 19:35:00,
2013-04-02 15:37:00,46.0,18.5,29.99,West,276,6.0,22.0,33,0.00,,,0.00,meteohub,2013-04-02 19:37:00,
2013-04-02 15:39:00,46.0,19.2,29.99,WSW,256,12.0,22.0,34,0.00,,,0.00,meteohub,2013-04-02 19:39:00,
2013-04-02 15:40:00,46.0,19.2,29.99,WNW,288,7.0,22.0,34,0.00,,,0.00,meteohub,2013-04-02 19:40:00,
2013-04-02 15:44:00,46.0,17.8,29.99,West,268,6.0,19.0,32,0.00,,,0.00,meteohub,2013-04-02 19:44:00,
2013-04-02 15:45:00,46.0,17.8,29.99,WNW,292,13.0,19.0,32,0.00,,,0.00,meteohub,2013-04-02 19:45:00,
2013-04-02 15:49:00,46.0,19.2,29.99,West,281,9.0,16.0,34,0.00,,,0.00,meteohub,2013-04-02 19:49:00,
2013-04-02 15:50:00,46.0,19.2,29.99,WSW,257,9.0,16.0,34,0.00,,,0.00,meteohub,2013-04-02 19:50:00,
2013-04-02 15:54:00,45.9,18.3,29.99,WNW,287,5.0,16.0,33,0.00,,,0.00,meteohub,2013-04-02 19:54:00,
2013-04-02 15:55:00,45.9,18.3,29.99,West,281,3.0,16.0,33,0.00,,,0.00,meteohub,2013-04-02 19:55:00,
2013-04-02 16:00:00,46.0,19.9,29.99,West,265,12.0,15.0,35,0.00,,,0.00,meteohub,2013-04-02 20:00:00,
2013-04-02 16:05:00,45.9,18.3,29.99,West,269,3.0,18.0,33,0.00,,,0.00,meteohub,2013-04-02 20:05:00,
2013-04-02 16:06:00,45.9,17.6,29.99,WNW,302,5.0,18.0,32,0.00,,,0.00,meteohub,2013-04-02 20:06:00,
2013-04-02 16:10:00,45.9,17.6,29.99,WNW,291,17.0,18.0,32,0.00,,,0.00,meteohub,2013-04-02 20:10:00,
2013-04-02 16:11:00,45.9,16.9,29.99,West,277,11.0,19.0,31,0.00,,,0.00,meteohub,2013-04-02 20:11:00,
2013-04-02 16:13:00,45.9,17.6,29.99,West,263,6.0,19.0,32,0.00,,,0.00,meteohub,2013-04-02 20:13:00,
2013-04-02 16:15:00,45.7,18.1,29.99,WNW,298,6.0,19.0,33,0.00,,,0.00,meteohub,2013-04-02 20:15:00,
2013-04-02 16:16:00,45.9,17.6,29.99,WSW,242,9.0,19.0,32,0.00,,,0.00,meteohub,2013-04-02 20:16:00,
2013-04-02 16:18:00,45.9,18.3,29.99,WNW,284,9.0,19.0,33,0.00,,,0.00,meteohub,2013-04-02 20:18:00,
2013-04-02 16:20:00,45.9,17.6,29.99,WNW,286,14.0,19.0,32,0.00,,,0.00,meteohub,2013-04-02 20:20:00,
2013-04-02 16:21:00,46.0,18.5,29.99,WNW,294,6.0,19.0,33,0.00,,,0.00,meteohub,2013-04-02 20:21:00,
2013-04-02 16:23:00,46.2,18.7,29.99,West,280,6.0,19.0,33,0.00,,,0.00,meteohub,2013-04-02 20:23:00,
2013-04-02 16:25:00,46.4,18.9,29.99,WNW,298,6.0,18.0,33,0.00,,,0.00,meteohub,2013-04-02 20:25:00,
2013-04-02 16:27:00,46.2,18.7,29.99,WNW,300,15.0,18.0,33,0.00,,,0.00,meteohub,2013-04-02 20:27:00,
2013-04-02 16:29:00,45.9,17.6,29.99,WNW,296,7.0,18.0,32,0.00,,,0.00,meteohub,2013-04-02 20:29:00,
2013-04-02 16:30:00,45.9,17.6,29.99,NW,306,9.0,16.0,32,0.00,,,0.00,meteohub,2013-04-02 20:30:00,
2013-04-02 16:32:00,45.9,17.6,29.99,WNW,284,8.0,16.0,32,0.00,,,0.00,meteohub,2013-04-02 20:32:00,
2013-04-02 16:34:00,46.0,18.5,29.99,West,276,7.0,16.0,33,0.00,,,0.00,meteohub,2013-04-02 20:34:00,
2013-04-02 16:36:00,46.2,18.7,29.99,SW,236,8.0,16.0,33,0.00,,,0.00,meteohub,2013-04-02 20:36:00,
2013-04-02 16:37:00,46.4,18.1,29.99,WNW,283,9.0,16.0,32,0.00,,,0.00,meteohub,2013-04-02 20:37:00,
2013-04-02 16:39:00,46.4,17.4,29.99,West,279,14.0,16.0,31,0.00,,,0.00,meteohub,2013-04-02 20:39:00,
2013-04-02 16:42:00,46.0,16.3,29.99,West,271,12.0,17.0,30,0.00,,,0.00,meteohub,2013-04-02 20:42:00,
2013-04-02 16:43:00,45.9,16.2,29.99,WNW,296,12.0,17.0,30,0.00,,,0.00,meteohub,2013-04-02 20:43:00,
2013-04-02 16:44:00,45.9,18.3,29.99,WSW,246,4.0,17.0,33,0.00,,,0.00,meteohub,2013-04-02 20:44:00,
2013-04-02 16:47:00,45.7,17.4,29.99,WSW,253,17.0,22.0,32,0.00,,,0.00,meteohub,2013-04-02 20:47:00,
2013-04-02 16:48:00,45.7,18.1,30.00,WNW,293,9.0,22.0,33,0.00,,,0.00,meteohub,2013-04-02 20:48:00,
2013-04-02 16:49:00,45.5,16.5,29.99,WNW,290,10.0,22.0,31,0.00,,,0.00,meteohub,2013-04-02 20:49:00,
2013-04-02 16:53:00,45.5,17.4,30.00,NNW,328,11.0,27.0,32,0.00,,,0.00,meteohub,2013-04-02 20:53:00,
2013-04-02 16:54:00,45.5,16.5,30.00,WSW,237,7.0,27.0,31,0.00,,,0.00,meteohub,2013-04-02 20:54:00,
2013-04-02 16:58:00,45.7,18.9,29.99,WSW,238,8.0,27.0,34,0.00,,,0.00,meteohub,2013-04-02 20:58:00,
2013-04-02 17:00:00,45.7,17.4,30.00,West,277,5.0,27.0,32,0.00,,,0.00,meteohub,2013-04-02 21:00:00,
2013-04-02 17:03:00,45.9,18.3,30.00,NW,304,7.0,27.0,33,0.00,,,0.00,meteohub,2013-04-02 21:03:00,
2013-04-02 17:05:00,45.9,16.9,29.99,WNW,288,20.0,20.0,31,0.00,,,0.00,meteohub,2013-04-02 21:05:00,
2013-04-02 17:08:00,45.9,17.6,29.99,WNW,296,11.0,20.0,32,0.00,,,0.00,meteohub,2013-04-02 21:08:00,
2013-04-02 17:10:00,45.7,16.7,30.00,NW,304,12.0,20.0,31,0.00,,,0.00,meteohub,2013-04-02 21:10:00,
2013-04-02 17:11:00,45.7,16.7,30.00,WNW,292,14.0,20.0,31,0.00,,,0.00,meteohub,2013-04-02 21:11:00,
2013-04-02 17:14:00,45.7,16.7,30.00,WNW,297,5.0,20.0,31,0.00,,,0.00,meteohub,2013-04-02 21:14:00,
2013-04-02 17:15:00,45.7,17.4,30.00,West,274,3.0,21.0,32,0.00,,,0.00,meteohub,2013-04-02 21:15:00,
2013-04-02 17:16:00,45.9,17.6,30.00,WNW,300,11.0,21.0,32,0.00,,,0.00,meteohub,2013-04-02 21:16:00,
2013-04-02 17:19:00,46.0,17.8,30.00,WSW,240,7.0,21.0,32,0.00,,,0.00,meteohub,2013-04-02 21:19:00,
2013-04-02 17:20:00,46.0,17.8,30.00,West,268,9.0,21.0,32,0.00,,,0.00,meteohub,2013-04-02 21:20:00,
2013-04-02 17:21:00,45.9,16.9,30.00,WSW,242,3.0,21.0,31,0.00,,,0.00,meteohub,2013-04-02 21:21:00,
2013-04-02 17:24:00,45.9,18.3,30.00,West,278,14.0,21.0,33,0.00,,,0.00,meteohub,2013-04-02 21:24:00,
2013-04-02 17:26:00,45.9,18.3,30.00,West,279,6.0,19.0,33,0.00,,,0.00,meteohub,2013-04-02 21:26:00,
2013-04-02 17:27:00,45.9,17.6,30.00,WNW,290,9.0,19.0,32,0.00,,,0.00,meteohub,2013-04-02 21:27:00,
2013-04-02 17:29:00,45.7,17.4,30.00,WNW,286,10.0,19.0,32,0.00,,,0.00,meteohub,2013-04-02 21:29:00,
2013-04-02 17:31:00,45.5,18.7,30.01,WNW,294,15.0,15.0,34,0.00,,,0.00,meteohub,2013-04-02 21:31:00,
2013-04-02 17:32:00,45.5,18.7,30.01,NW,315,6.0,15.0,34,0.00,,,0.00,meteohub,2013-04-02 21:32:00,
2013-04-02 17:34:00,45.3,16.5,30.01,West,278,14.0,15.0,31,0.00,,,0.00,meteohub,2013-04-02 21:34:00,
2013-04-02 17:36:00,45.3,16.5,30.01,WNW,284,10.0,20.0,31,0.00,,,0.00,meteohub,2013-04-02 21:36:00,
2013-04-02 17:37:00,45.3,16.5,30.01,WSW,254,5.0,20.0,31,0.00,,,0.00,meteohub,2013-04-02 21:37:00,
2013-04-02 17:40:00,45.3,17.2,30.01,NNW,327,4.0,20.0,32,0.00,,,0.00,meteohub,2013-04-02 21:40:00,
2013-04-02 17:41:00,45.3,17.2,30.01,NW,305,6.0,20.0,32,0.00,,,0.00,meteohub,2013-04-02 21:41:00,
2013-04-02 17:42:00,45.3,17.2,30.01,WNW,294,7.0,20.0,32,0.00,,,0.00,meteohub,2013-04-02 21:42:00,
2013-04-02 17:47:00,45.7,16.7,30.01,WNW,289,5.0,16.0,31,0.00,,,0.00,meteohub,2013-04-02 21:47:00,
2013-04-02 17:48:00,45.5,16.5,30.01,NW,321,7.0,16.0,31,0.00,,,0.00,meteohub,2013-04-02 21:48:00,
2013-04-02 17:52:00,45.5,17.4,30.01,NW,304,12.0,16.0,32,0.00,,,0.00,meteohub,2013-04-02 21:52:00,
2013-04-02 17:53:00,45.3,17.2,30.01,WNW,282,9.0,16.0,32,0.00,,,0.00,meteohub,2013-04-02 21:53:00,
2013-04-02 17:58:00,45.1,17.8,30.01,West,266,17.0,17.0,33,0.00,,,0.00,meteohub,2013-04-02 21:58:00,
2013-04-02 18:03:00,45.1,17.1,30.02,West,269,13.0,22.0,32,0.00,,,0.00,meteohub,2013-04-02 22:03:00,
2013-04-02 18:04:00,45.0,16.9,30.02,NW,304,12.0,22.0,32,0.00,,,0.00,meteohub,2013-04-02 22:04:00,
2013-04-02 18:08:00,45.0,17.6,30.02,West,268,12.0,22.0,33,0.00,,,0.00,meteohub,2013-04-02 22:08:00,
2013-04-02 18:09:00,45.0,17.6,30.02,West,269,17.0,22.0,33,0.00,,,0.00,meteohub,2013-04-02 22:09:00,
2013-04-02 18:13:00,44.6,16.5,30.03,WNW,285,8.0,22.0,32,0.00,,,0.00,meteohub,2013-04-02 22:13:00,
2013-04-02 18:14:00,44.6,16.5,30.02,West,261,7.0,22.0,32,0.00,,,0.00,meteohub,2013-04-02 22:14:00,
2013-04-02 18:15:00,44.6,18.0,30.03,West,272,8.0,22.0,34,0.00,,,0.00,meteohub,2013-04-02 22:15:00,
2013-04-02 18:19:00,44.6,17.2,30.03,West,263,3.0,18.0,33,0.00,,,0.00,meteohub,2013-04-02 22:19:00,
2013-04-02 18:20:00,44.6,16.5,30.03,West,261,5.0,18.0,32,0.00,,,0.00,meteohub,2013-04-02 22:20:00,
2013-04-02 18:24:00,44.8,18.1,30.03,WNW,284,4.0,18.0,34,0.00,,,0.00,meteohub,2013-04-02 22:24:00,
2013-04-02 18:25:00,44.8,17.4,30.03,WNW,287,8.0,18.0,33,0.00,,,0.00,meteohub,2013-04-02 22:25:00,
2013-04-02 18:29:00,44.8,17.4,30.03,WSW,248,6.0,18.0,33,0.00,,,0.00,meteohub,2013-04-02 22:29:00,
2013-04-02 18:30:00,44.6,16.5,30.03,WNW,292,8.0,18.0,32,0.00,,,0.00,meteohub,2013-04-02 22:30:00,
2013-04-02 18:34:00,44.6,17.2,30.03,West,279,8.0,18.0,33,0.00,,,0.00,meteohub,2013-04-02 22:34:00,
2013-04-02 18:36:00,44.4,16.3,30.03,WNW,290,5.0,14.0,32,0.00,,,0.00,meteohub,2013-04-02 22:36:00,
2013-04-02 18:37:00,44.4,17.8,30.03,West,269,13.0,14.0,34,0.00,,,0.00,meteohub,2013-04-02 22:37:00,
2013-04-02 18:39:00,44.4,17.1,30.03,West,267,8.0,14.0,33,0.00,,,0.00,meteohub,2013-04-02 22:39:00,
2013-04-02 18:41:00,44.2,18.3,30.04,West,272,6.0,15.0,35,0.00,,,0.00,meteohub,2013-04-02 22:41:00,
2013-04-02 18:42:00,44.2,18.3,30.04,NW,317,6.0,15.0,35,0.00,,,0.00,meteohub,2013-04-02 22:42:00,
2013-04-02 18:44:00,44.2,16.9,30.04,NW,310,11.0,15.0,33,0.00,,,0.00,meteohub,2013-04-02 22:44:00,
2013-04-02 18:47:00,44.1,18.1,30.04,West,275,6.0,15.0,35,0.00,,,0.00,meteohub,2013-04-02 22:47:00,
2013-04-02 18:49:00,43.9,17.2,30.04,WSW,254,11.0,15.0,34,0.00,,,0.00,meteohub,2013-04-02 22:49:00,
2013-04-02 18:52:00,43.9,18.0,30.04,WSW,252,8.0,15.0,35,0.00,,,0.00,meteohub,2013-04-02 22:52:00,
2013-04-02 18:53:00,43.7,18.5,30.04,West,273,5.0,15.0,36,0.00,,,0.00,meteohub,2013-04-02 22:53:00,
2013-04-02 18:55:00,43.7,18.5,30.04,WNW,291,6.0,14.0,36,0.00,,,0.00,meteohub,2013-04-02 22:55:00,
2013-04-02 18:57:00,43.5,18.3,30.04,WSW,250,5.0,14.0,36,0.00,,,0.00,meteohub,2013-04-02 22:57:00,
2013-04-02 18:58:00,43.5,19.0,30.04,WNW,283,10.0,14.0,37,0.00,,,0.00,meteohub,2013-04-02 22:58:00,
2013-04-02 19:01:00,43.5,17.1,30.04,WSW,246,7.0,13.0,34,0.00,,,0.00,meteohub,2013-04-02 23:01:00,
2013-04-02 19:02:00,43.5,17.6,30.04,West,273,11.0,13.0,35,0.00,,,0.00,meteohub,2013-04-02 23:02:00,
2013-04-02 19:03:00,43.5,18.3,30.04,West,263,6.0,13.0,36,0.00,,,0.00,meteohub,2013-04-02 23:03:00,
2013-04-02 19:06:00,43.3,17.6,30.04,West,261,12.0,14.0,35,0.00,,,0.00,meteohub,2013-04-02 23:06:00,
2013-04-02 19:07:00,43.3,17.6,30.04,NW,304,6.0,14.0,35,0.00,,,0.00,meteohub,2013-04-02 23:07:00,
2013-04-02 19:08:00,43.3,17.6,30.04,WNW,287,5.0,14.0,35,0.00,,,0.00,meteohub,2013-04-02 23:08:00,
2013-04-02 19:11:00,43.2,18.0,30.04,WNW,289,11.0,16.0,36,0.00,,,0.00,meteohub,2013-04-02 23:11:00,
2013-04-02 19:12:00,43.2,18.0,30.04,WNW,293,4.0,16.0,36,0.00,,,0.00,meteohub,2013-04-02 23:12:00,
2013-04-02 19:14:00,43.0,18.5,30.04,West,275,12.0,16.0,37,0.00,,,0.00,meteohub,2013-04-02 23:14:00,
2013-04-02 19:17:00,43.0,19.0,30.04,West,276,12.0,16.0,38,0.00,,,0.00,meteohub,2013-04-02 23:17:00,
2013-04-02 19:18:00,43.0,18.5,30.04,WNW,284,5.0,16.0,37,0.00,,,0.00,meteohub,2013-04-02 23:18:00,
2013-04-02 19:19:00,43.0,17.8,30.04,West,265,8.0,16.0,36,0.00,,,0.00,meteohub,2013-04-02 23:19:00,
2013-04-02 19:22:00,42.8,17.6,30.04,West,275,6.0,16.0,36,0.00,,,0.00,meteohub,2013-04-02 23:22:00,
2013-04-02 19:23:00,42.8,17.6,30.04,WNW,296,8.0,16.0,36,0.00,,,0.00,meteohub,2013-04-02 23:23:00,
2013-04-02 19:24:00,42.8,17.6,30.04,West,275,9.0,16.0,36,0.00,,,0.00,meteohub,2013-04-02 23:24:00,
2013-04-02 19:27:00,42.6,18.1,30.04,West,269,4.0,16.0,37,0.00,,,0.00,meteohub,2013-04-02 23:27:00,
2013-04-02 19:28:00,42.6,18.9,30.04,WNW,286,7.0,16.0,38,0.00,,,0.00,meteohub,2013-04-02 23:28:00,
2013-04-02 19:29:00,42.6,18.9,30.04,WNW,302,10.0,16.0,38,0.00,,,0.00,meteohub,2013-04-02 23:29:00,
2013-04-02 19:32:00,42.6,18.1,30.04,WNW,290,13.0,16.0,37,0.00,,,0.00,meteohub,2013-04-02 23:32:00,
2013-04-02 19:33:00,42.4,18.0,30.04,West,270,3.0,16.0,37,0.00,,,0.00,meteohub,2013-04-02 23:33:00,
2013-04-02 19:35:00,42.4,18.7,30.05,West,275,8.0,16.0,38,0.00,,,0.00,meteohub,2013-04-02 23:35:00,
2013-04-02 19:37:00,42.4,18.0,30.05,WNW,292,10.0,16.0,37,0.00,,,0.00,meteohub,2013-04-02 23:37:00,
2013-04-02 19:38:00,42.4,18.0,30.05,WNW,283,7.0,16.0,37,0.00,,,0.00,meteohub,2013-04-02 23:38:00,
2013-04-02 19:40:00,42.3,18.5,30.05,WNW,282,7.0,14.0,38,0.00,,,0.00,meteohub,2013-04-02 23:40:00,
2013-04-02 19:43:00,42.3,19.0,30.05,West,272,6.0,14.0,39,0.00,,,0.00,meteohub,2013-04-02 23:43:00,
2013-04-02 19:44:00,42.3,19.0,30.05,NW,320,3.0,14.0,39,0.00,,,0.00,meteohub,2013-04-02 23:44:00,
2013-04-02 19:45:00,42.3,19.0,30.05,WNW,293,5.0,14.0,39,0.00,,,0.00,meteohub,2013-04-02 23:45:00,
2013-04-02 19:48:00,42.1,19.6,30.05,NW,309,6.0,14.0,40,0.00,,,0.00,meteohub,2013-04-02 23:48:00,
2013-04-02 19:49:00,42.1,20.1,30.05,WNW,286,4.0,14.0,41,0.00,,,0.00,meteohub,2013-04-02 23:49:00,
2013-04-02 19:50:00,42.1,19.6,30.05,West,265,5.0,14.0,40,0.00,,,0.00,meteohub,2013-04-02 23:50:00,
2013-04-02 19:53:00,41.9,19.4,30.06,WNW,284,5.0,14.0,40,0.00,,,0.00,meteohub,2013-04-02 23:53:00,
2013-04-02 19:54:00,41.9,18.7,30.06,West,259,7.0,14.0,39,0.00,,,0.00,meteohub,2013-04-02 23:54:00,
2013-04-02 19:55:00,41.9,19.4,30.06,West,281,3.0,12.0,40,0.00,,,0.00,meteohub,2013-04-02 23:55:00,
2013-04-02 19:59:00,41.9,19.9,30.06,WNW,293,4.0,12.0,41,0.00,,,0.00,meteohub,2013-04-02 23:59:00,
2013-04-02 20:00:00,41.7,19.8,30.06,West,276,5.0,12.0,41,0.00,,,0.00,meteohub,2013-04-03 00:00:00,
2013-04-02 20:02:00,41.7,19.8,30.06,WSW,244,2.0,12.0,41,0.00,,,0.00,meteohub,2013-04-03 00:02:00,
2013-04-02 20:04:00,41.7,19.8,30.06,SW,235,4.0,12.0,41,0.00,,,0.00,meteohub,2013-04-03 00:04:00,
2013-04-02 20:05:00,41.7,19.8,30.06,WSW,244,5.0,10.0,41,0.00,,,0.00,meteohub,2013-04-03 00:05:00,
2013-04-02 20:07:00,41.7,19.8,30.06,West,278,5.0,10.0,41,0.00,,,0.00,meteohub,2013-04-03 00:07:00,
2013-04-02 20:09:00,41.7,19.8,30.06,West,279,5.0,10.0,41,0.00,,,0.00,meteohub,2013-04-03 00:09:00,
2013-04-02 20:10:00,41.5,20.1,30.06,WNW,296,8.0,12.0,42,0.00,,,0.00,meteohub,2013-04-03 00:10:00,
2013-04-02 20:12:00,41.5,20.1,30.06,West,280,5.0,12.0,42,0.00,,,0.00,meteohub,2013-04-03 00:12:00,
2013-04-02 20:14:00,41.5,20.1,30.06,West,276,2.0,12.0,42,0.00,,,0.00,meteohub,2013-04-03 00:14:00,
2013-04-02 20:15:00,41.5,20.7,30.06,WNW,285,5.0,12.0,43,0.00,,,0.00,meteohub,2013-04-03 00:15:00,
2013-04-02 20:17:00,41.4,20.5,30.06,West,269,7.0,12.0,43,0.00,,,0.00,meteohub,2013-04-03 00:17:00,
2013-04-02 20:20:00,41.4,20.5,30.07,West,273,6.0,12.0,43,0.00,,,0.00,meteohub,2013-04-03 00:20:00,
2013-04-02 20:21:00,41.4,21.0,30.07,WNW,285,4.0,12.0,44,0.00,,,0.00,meteohub,2013-04-03 00:21:00,
2013-04-02 20:22:00,41.4,21.0,30.07,WSW,243,4.0,12.0,44,0.00,,,0.00,meteohub,2013-04-03 00:22:00,
2013-04-02 20:25:00,41.4,21.0,30.07,WSW,247,5.0,10.0,44,0.00,,,0.00,meteohub,2013-04-03 00:25:00,
2013-04-02 20:27:00,41.4,21.0,30.07,WNW,293,4.0,10.0,44,0.00,,,0.00,meteohub,2013-04-03 00:27:00,
2013-04-02 20:28:00,41.2,20.8,30.07,WNW,282,8.0,10.0,44,0.00,,,0.00,meteohub,2013-04-03 00:28:00,
2013-04-02 20:30:00,41.2,21.4,30.08,West,273,7.0,10.0,45,0.00,,,0.00,meteohub,2013-04-03 00:30:00,
2013-04-02 20:32:00,41.2,21.4,30.08,WNW,293,3.0,10.0,45,0.00,,,0.00,meteohub,2013-04-03 00:32:00,
2013-04-02 20:33:00,41.2,20.8,30.08,West,265,5.0,10.0,44,0.00,,,0.00,meteohub,2013-04-03 00:33:00,
2013-04-02 20:35:00,41.2,20.8,30.08,WNW,294,3.0,10.0,44,0.00,,,0.00,meteohub,2013-04-03 00:35:00,
2013-04-02 20:38:00,41.4,20.5,30.08,West,276,5.0,10.0,43,0.00,,,0.00,meteohub,2013-04-03 00:38:00,
2013-04-02 20:39:00,41.4,20.5,30.08,West,273,7.0,10.0,43,0.00,,,0.00,meteohub,2013-04-03 00:39:00,
2013-04-02 20:41:00,41.4,20.5,30.08,WNW,301,3.0,10.0,43,0.00,,,0.00,meteohub,2013-04-03 00:41:00,
2013-04-02 20:43:00,41.4,19.9,30.08,West,279,6.0,10.0,42,0.00,,,0.00,meteohub,2013-04-03 00:43:00,
2013-04-02 20:44:00,41.2,19.8,30.08,SW,229,6.0,10.0,42,0.00,,,0.00,meteohub,2013-04-03 00:44:00,
2013-04-02 20:46:00,41.2,19.8,30.08,West,275,3.0,10.0,42,0.00,,,0.00,meteohub,2013-04-03 00:46:00,
2013-04-02 20:48:00,41.2,20.3,30.08,WSW,255,7.0,10.0,43,0.00,,,0.00,meteohub,2013-04-03 00:48:00,
2013-04-02 20:49:00,41.2,20.3,30.08,WSW,237,5.0,10.0,43,0.00,,,0.00,meteohub,2013-04-03 00:49:00,
2013-04-02 20:51:00,41.2,20.3,30.09,WNW,285,4.0,10.0,43,0.00,,,0.00,meteohub,2013-04-03 00:51:00,
2013-04-02 20:54:00,41.2,20.8,30.09,WSW,246,7.0,10.0,44,0.00,,,0.00,meteohub,2013-04-03 00:54:00,
2013-04-02 20:55:00,41.2,20.8,30.09,WSW,244,5.0,10.0,44,0.00,,,0.00,meteohub,2013-04-03 00:55:00,
2013-04-02 20:59:00,41.4,19.9,30.09,WSW,257,4.0,10.0,42,0.00,,,0.00,meteohub,2013-04-03 00:59:00,
2013-04-02 21:00:00,41.4,19.9,30.09,SW,236,4.0,11.0,42,0.00,,,0.00,meteohub,2013-04-03 01:00:00,
2013-04-02 21:04:00,41.4,19.4,30.09,WNW,296,6.0,11.0,41,0.00,,,0.00,meteohub,2013-04-03 01:04:00,
2013-04-02 21:05:00,41.4,18.9,30.09,West,277,5.0,11.0,40,0.00,,,0.00,meteohub,2013-04-03 01:05:00,
2013-04-02 21:09:00,41.4,19.4,30.09,WSW,250,3.0,11.0,41,0.00,,,0.00,meteohub,2013-04-03 01:09:00,
2013-04-02 21:10:00,41.4,19.9,30.09,West,280,9.0,11.0,42,0.00,,,0.00,meteohub,2013-04-03 01:10:00,
2013-04-02 21:14:00,41.2,20.3,30.09,West,281,1.0,10.0,43,0.00,,,0.00,meteohub,2013-04-03 01:14:00,
2013-04-02 21:15:00,41.2,19.8,30.09,WSW,243,3.0,10.0,42,0.00,,,0.00,meteohub,2013-04-03 01:15:00,
2013-04-02 21:19:00,41.0,19.6,30.09,WSW,248,4.0,13.0,42,0.00,,,0.00,meteohub,2013-04-03 01:19:00,
2013-04-02 21:20:00,41.0,19.6,30.09,WSW,250,2.0,13.0,42,0.00,,,0.00,meteohub,2013-04-03 01:20:00,
2013-04-02 21:21:00,40.8,20.1,30.09,West,263,5.0,13.0,43,0.00,,,0.00,meteohub,2013-04-03 01:21:00,
2013-04-02 21:25:00,40.8,19.6,30.09,West,261,2.0,13.0,42,0.00,,,0.00,meteohub,2013-04-03 01:25:00,
2013-04-02 21:26:00,40.6,19.9,30.09,WSW,252,3.0,13.0,43,0.00,,,0.00,meteohub,2013-04-03 01:26:00,
2013-04-02 21:30:00,40.6,19.9,30.09,WSW,258,4.0,11.0,43,0.00,,,0.00,meteohub,2013-04-03 01:30:00,
2013-04-02 21:32:00,40.6,19.9,30.09,West,259,2.0,11.0,43,0.00,,,0.00,meteohub,2013-04-03 01:32:00,
2013-04-02 21:35:00,40.6,21.6,30.09,West,280,5.0,9.0,46,0.00,,,0.00,meteohub,2013-04-03 01:35:00,
2013-04-02 21:37:00,40.6,21.9,30.10,SW,234,7.0,9.0,47,0.00,,,0.00,meteohub,2013-04-03 01:37:00,
2013-04-02 21:38:00,40.6,21.9,30.10,West,264,3.0,9.0,47,0.00,,,0.00,meteohub,2013-04-03 01:38:00,
2013-04-02 21:40:00,40.6,21.9,30.10,West,270,4.0,9.0,47,0.00,,,0.00,meteohub,2013-04-03 01:40:00,
2013-04-02 21:43:00,40.6,21.6,30.10,West,273,6.0,9.0,46,0.00,,,0.00,meteohub,2013-04-03 01:43:00,
2013-04-02 21:45:00,40.6,21.6,30.10,West,268,6.0,9.0,46,0.00,,,0.00,meteohub,2013-04-03 01:45:00,
2013-04-02 21:48:00,40.6,21.6,30.10,WNW,289,7.0,9.0,46,0.00,,,0.00,meteohub,2013-04-03 01:48:00,
2013-04-02 21:50:00,40.6,21.0,30.10,West,264,3.0,10.0,45,0.00,,,0.00,meteohub,2013-04-03 01:50:00,
2013-04-02 21:53:00,40.6,21.0,30.10,West,270,2.0,10.0,45,0.00,,,0.00,meteohub,2013-04-03 01:53:00,
2013-04-02 21:56:00,40.6,21.9,30.10,WNW,284,7.0,11.0,47,0.00,,,0.00,meteohub,2013-04-03 01:56:00,
2013-04-02 21:58:00,40.6,21.9,30.10,WSW,249,4.0,11.0,47,0.00,,,0.00,meteohub,2013-04-03 01:58:00,
2013-04-02 22:01:00,40.6,21.6,30.10,WNW,298,4.0,11.0,46,0.00,,,0.00,meteohub,2013-04-03 02:01:00,
2013-04-02 22:03:00,40.5,21.7,30.10,WSW,243,2.0,11.0,47,0.00,,,0.00,meteohub,2013-04-03 02:03:00,
2013-04-02 22:07:00,40.5,21.7,30.10,WNW,299,4.0,11.0,47,0.00,,,0.00,meteohub,2013-04-03 02:07:00,
2013-04-02 22:08:00,40.5,21.7,30.10,West,279,3.0,11.0,47,0.00,,,0.00,meteohub,2013-04-03 02:08:00,
2013-04-02 22:12:00,40.5,21.7,30.10,WNW,298,8.0,10.0,47,0.00,,,0.00,meteohub,2013-04-03 02:12:00,
2013-04-02 22:13:00,40.5,22.3,30.10,WNW,286,6.0,10.0,48,0.00,,,0.00,meteohub,2013-04-03 02:13:00,
2013-04-02 22:14:00,40.5,22.3,30.10,WNW,291,5.0,10.0,48,0.00,,,0.00,meteohub,2013-04-03 02:14:00,
2013-04-02 22:18:00,40.3,22.6,30.10,WNW,286,3.0,10.0,49,0.00,,,0.00,meteohub,2013-04-03 02:18:00,
2013-04-02 22:19:00,40.1,22.5,30.10,West,261,3.0,10.0,49,0.00,,,0.00,meteohub,2013-04-03 02:19:00,
2013-04-02 22:23:00,39.9,22.8,30.11,WNW,299,3.0,10.0,50,0.00,,,0.00,meteohub,2013-04-03 02:23:00,
2013-04-02 22:24:00,39.9,22.8,30.10,West,273,6.0,10.0,50,0.00,,,0.00,meteohub,2013-04-03 02:24:00,
2013-04-02 22:25:00,39.9,22.8,30.10,West,268,4.0,11.0,50,0.00,,,0.00,meteohub,2013-04-03 02:25:00,
2013-04-02 22:28:00,39.7,22.6,30.11,West,281,5.0,11.0,50,0.00,,,0.00,meteohub,2013-04-03 02:28:00,
2013-04-02 22:29:00,39.7,23.2,30.11,WNW,285,9.0,11.0,51,0.00,,,0.00,meteohub,2013-04-03 02:29:00,
2013-04-02 22:30:00,39.7,22.6,30.11,West,264,6.0,12.0,50,0.00,,,0.00,meteohub,2013-04-03 02:30:00,
2013-04-02 22:34:00,39.6,22.5,30.11,West,280,7.0,12.0,50,0.00,,,0.00,meteohub,2013-04-03 02:34:00,
2013-04-02 22:36:00,39.6,21.6,30.11,West,267,4.0,13.0,48,0.00,,,0.00,meteohub,2013-04-03 02:36:00,
2013-04-02 22:39:00,39.2,21.6,30.11,West,260,2.0,13.0,49,0.00,,,0.00,meteohub,2013-04-03 02:39:00,
2013-04-02 22:41:00,39.0,21.0,30.11,West,273,5.0,15.0,48,0.00,,,0.00,meteohub,2013-04-03 02:41:00,
2013-04-02 22:44:00,38.7,21.2,30.11,West,276,6.0,15.0,49,0.00,,,0.00,meteohub,2013-04-03 02:44:00,
2013-04-02 22:45:00,38.7,21.2,30.11,WNW,294,8.0,15.0,49,0.00,,,0.00,meteohub,2013-04-03 02:45:00,
2013-04-02 22:46:00,38.5,21.0,30.11,WSW,252,4.0,15.0,49,0.00,,,0.00,meteohub,2013-04-03 02:46:00,
2013-04-02 22:49:00,38.1,21.2,30.11,West,269,7.0,15.0,50,0.00,,,0.00,meteohub,2013-04-03 02:49:00,
2013-04-02 22:50:00,38.1,21.2,30.11,West,276,5.0,15.0,50,0.00,,,0.00,meteohub,2013-04-03 02:50:00,
2013-04-02 22:52:00,37.9,21.0,30.11,West,271,10.0,15.0,50,0.00,,,0.00,meteohub,2013-04-03 02:52:00,
2013-04-02 22:55:00,37.8,21.2,30.11,WNW,286,10.0,15.0,51,0.00,,,0.00,meteohub,2013-04-03 02:55:00,
2013-04-02 22:57:00,37.6,21.0,30.11,West,265,7.0,12.0,51,0.00,,,0.00,meteohub,2013-04-03 02:57:00,
2013-04-02 23:00:00,37.4,20.5,30.11,NW,310,8.0,12.0,50,0.00,,,0.00,meteohub,2013-04-03 03:00:00,
2013-04-02 23:02:00,37.2,20.3,30.11,WNW,301,3.0,12.0,50,0.00,,,0.00,meteohub,2013-04-03 03:02:00,
2013-04-02 23:05:00,37.2,20.3,30.11,West,270,3.0,12.0,50,0.00,,,0.00,meteohub,2013-04-03 03:05:00,
2013-04-02 23:06:00,37.2,20.8,30.11,WNW,294,5.0,12.0,51,0.00,,,0.00,meteohub,2013-04-03 03:06:00,
2013-04-02 23:07:00,37.2,20.3,30.11,WNW,291,8.0,12.0,50,0.00,,,0.00,meteohub,2013-04-03 03:07:00,
2013-04-02 23:11:00,37.2,20.3,30.11,WNW,283,6.0,11.0,50,0.00,,,0.00,meteohub,2013-04-03 03:11:00,
2013-04-02 23:12:00,37.2,20.3,30.11,WNW,298,7.0,11.0,50,0.00,,,0.00,meteohub,2013-04-03 03:12:00,
2013-04-02 23:13:00,37.2,20.3,30.11,West,271,6.0,11.0,50,0.00,,,0.00,meteohub,2013-04-03 03:13:00,
2013-04-02 23:17:00,37.2,20.3,30.11,West,269,2.0,11.0,50,0.00,,,0.00,meteohub,2013-04-03 03:17:00,
2013-04-02 23:20:00,37.0,20.1,30.12,WSW,250,3.0,11.0,50,0.00,,,0.00,meteohub,2013-04-03 03:20:00,
2013-04-02 23:22:00,37.0,20.1,30.11,West,265,5.0,12.0,50,0.00,,,0.00,meteohub,2013-04-03 03:22:00,
2013-04-02 23:23:00,37.0,20.1,30.12,WNW,300,4.0,12.0,50,0.00,,,0.00,meteohub,2013-04-03 03:23:00,
2013-04-02 23:25:00,37.0,20.1,30.11,WSW,248,2.0,12.0,50,0.00,,,0.00,meteohub,2013-04-03 03:25:00,
2013-04-02 23:27:00,37.0,20.1,30.12,West,271,9.0,12.0,50,0.00,,,0.00,meteohub,2013-04-03 03:27:00,
2013-04-02 23:29:00,37.0,20.7,30.12,NW,304,7.0,12.0,51,0.00,,,0.00,meteohub,2013-04-03 03:29:00,
2013-04-02 23:31:00,37.0,20.7,30.12,West,277,5.0,11.0,51,0.00,,,0.00,meteohub,2013-04-03 03:31:00,
2013-04-02 23:32:00,37.0,20.7,30.12,NW,309,6.0,11.0,51,0.00,,,0.00,meteohub,2013-04-03 03:32:00,
2013-04-02 23:34:00,36.9,20.5,30.12,WNW,284,3.0,11.0,51,0.00,,,0.00,meteohub,2013-04-03 03:34:00,
2013-04-02 23:37:00,36.7,20.3,30.12,West,277,6.0,11.0,51,0.00,,,0.00,meteohub,2013-04-03 03:37:00,
2013-04-02 23:39:00,36.7,20.3,30.11,West,280,6.0,11.0,51,0.00,,,0.00,meteohub,2013-04-03 03:39:00,
2013-04-02 23:42:00,36.5,20.1,30.11,WNW,286,4.0,11.0,51,0.00,,,0.00,meteohub,2013-04-03 03:42:00,
2013-04-02 23:43:00,36.5,20.1,30.12,WNW,287,4.0,11.0,51,0.00,,,0.00,meteohub,2013-04-03 03:43:00,
2013-04-02 23:44:00,36.5,20.1,30.12,WNW,291,7.0,11.0,51,0.00,,,0.00,meteohub,2013-04-03 03:44:00,
2013-04-02 23:48:00,36.3,19.9,30.12,WNW,286,4.0,11.0,51,0.00,,,0.00,meteohub,2013-04-03 03:48:00,
2013-04-02 23:50:00,36.3,19.9,30.12,West,277,7.0,11.0,51,0.00,,,0.00,meteohub,2013-04-03 03:50:00,
2013-04-02 23:53:00,36.3,19.9,30.12,WNW,302,5.0,11.0,51,0.00,,,0.00,meteohub,2013-04-03 03:53:00,
2013-04-02 23:55:00,36.3,19.9,30.12,WNW,290,3.0,11.0,51,0.00,,,0.00,meteohub,2013-04-03 03:55:00,
2013-04-02 23:58:00,36.5,20.5,30.12,WNW,298,5.0,11.0,52,0.00,,,0.00,meteohub,2013-04-03 03:58:00,